Time,TemperatureF,DewpointF,PressureIn,WindDirection,WindDirectionDegrees,WindSpeedMPH,WindSpeedGustMPH,Humidity,HourlyPrecipIn,Conditions,Clouds,dailyrainin,SolarRadiationWatts/m^2,SoftwareType,DateUTC
2013-04-03 00:00:00,26.6,19.4,30.22,SSW,194,5.0,9.0,74,0.00,,,0.00,0,Wunderground v.1.15,2013-04-03 04:00:00,
2013-04-03 00:02:00,26.6,19.4,30.22,SSW,192,6.0,12.0,74,0.00,,,0.00,0,Wunderground v.1.15,2013-04-03 04:02:00,
2013-04-03 00:03:00,26.6,19.1,30.22,South,173,6.0,12.0,73,0.00,,,0.00,0,Wunderground v.1.15,2013-04-03 04:03:00,
2013-04-03 00:05:00,26.6,19.1,30.22,SSW,194,7.0,13.0,73,0.00,,,0.00,0,Wunderground v.1.15,2013-04-03 04:05:00,
2013-04-03 00:07:00,26.6,19.1,30.22,South,186,7.0,13.0,73,0.00,,,0.00,0,Wunderground v.1.15,2013-04-03 04:07:00,
2013-04-03 00:08:00,26.7,19.2,30.22,SSW,196,7.0,13.0,73,0.00,,,0.00,0,Wunderground v.1.15,2013-04-03 04:08:00,
2013-04-03 00:10:00,26.7,19.2,30.22,South,190,6.0,6.0,73,0.00,,,0.00,0,Wunderground v.1.15,2013-04-03 04:10:00,
2013-04-03 00:13:00,26.7,18.9,30.22,WSW,238,5.0,9.0,72,0.00,,,0.00,0,Wunderground v.1.15,2013-04-03 04:13:00,
2013-04-03 00:14:00,26.7,19.2,30.22,SSW,207,4.0,9.0,73,0.00,,,0.00,0,Wunderground v.1.15,2013-04-03 04:14:00,
2013-04-03 00:17:00,26.7,18.9,30.22,South,182,4.0,11.0,72,0.00,,,0.00,0,Wunderground v.1.15,2013-04-03 04:17:00,
2013-04-03 00:18:00,26.7,18.9,30.22,SSW,211,4.0,11.0,72,0.00,,,0.00,0,Wunderground v.1.15,2013-04-03 04:18:00,
2013-04-03 00:20:00,26.7,18.9,30.22,SSW,213,5.0,5.0,72,0.00,,,0.00,0,Wunderground v.1.15,2013-04-03 04:20:00,
2013-04-03 00:23:00,26.7,18.9,30.22,South,180,6.0,9.0,72,0.00,,,0.00,0,Wunderground v.1.15,2013-04-03 04:23:00,
2013-04-03 00:27:00,26.8,19.0,30.22,South,188,5.0,9.0,72,0.00,,,0.00,0,Wunderground v.1.15,2013-04-03 04:27:00,
2013-04-03 00:28:00,26.9,19.1,30.22,SSW,208,5.0,9.0,72,0.00,,,0.00,0,Wunderground v.1.15,2013-04-03 04:28:00,
2013-04-03 00:32:00,26.8,19.0,30.22,SW,225,5.0,9.0,72,0.00,,,0.00,0,Wunderground v.1.15,2013-04-03 04:32:00,
2013-04-03 00:33:00,26.7,18.9,30.22,SSW,198,4.0,9.0,72,0.00,,,0.00,0,Wunderground v.1.15,2013-04-03 04:33:00,
2013-04-03 00:35:00,26.7,18.9,30.22,SSW,206,5.0,9.0,72,0.00,,,0.00,0,Wunderground v.1.15,2013-04-03 04:35:00,
2013-04-03 00:37:00,26.7,18.9,30.22,SSW,198,6.0,10.0,72,0.00,,,0.00,0,Wunderground v.1.15,2013-04-03 04:37:00,
2013-04-03 00:39:00,26.7,18.9,30.22,SSW,207,6.0,10.0,72,0.00,,,0.00,0,Wunderground v.1.15,2013-04-03 04:39:00,
2013-04-03 00:43:00,26.7,18.9,30.22,South,180,7.0,10.0,72,0.00,,,0.00,0,Wunderground v.1.15,2013-04-03 04:43:00,
2013-04-03 00:46:00,26.7,19.2,30.22,South,170,6.0,10.0,73,0.00,,,0.00,0,Wunderground v.1.15,2013-04-03 04:46:00,
2013-04-03 00:48:00,26.7,19.2,30.22,South,188,6.0,10.0,73,0.00,,,0.00,0,Wunderground v.1.15,2013-04-03 04:48:00,
2013-04-03 00:50:00,26.7,18.9,30.22,SSW,206,6.0,9.0,72,0.00,,,0.00,0,Wunderground v.1.15,2013-04-03 04:50:00,
2013-04-03 00:52:00,26.7,18.9,30.22,SSW,202,5.0,9.0,72,0.00,,,0.00,0,Wunderground v.1.15,2013-04-03 04:52:00,
2013-04-03 00:54:00,26.7,18.6,30.22,West,265,4.0,9.0,71,0.00,,,0.00,0,Wunderground v.1.15,2013-04-03 04:54:00,
2013-04-03 00:55:00,26.7,18.6,30.22,SSW,193,4.0,9.0,71,0.00,,,0.00,0,Wunderground v.1.15,2013-04-03 04:55:00,
2013-04-03 00:59:00,26.6,18.5,30.22,SSW,196,3.0,9.0,71,0.00,,,0.00,0,Wunderground v.1.15,2013-04-03 04:59:00,
2013-04-03 01:00:00,26.6,18.5,30.22,SW,219,3.0,9.0,71,0.00,,,0.00,0,Wunderground v.1.15,2013-04-03 05:00:00,
2013-04-03 01:02:00,26.5,18.4,30.22,SSW,203,3.0,9.0,71,0.00,,,0.00,0,Wunderground v.1.15,2013-04-03 05:02:00,
2013-04-03 01:04:00,26.6,18.5,30.23,SSW,194,4.0,9.0,71,0.00,,,0.00,0,Wunderground v.1.15,2013-04-03 05:04:00,
2013-04-03 01:06:00,26.5,18.7,30.23,South,186,4.0,9.0,72,0.00,,,0.00,0,Wunderground v.1.15,2013-04-03 05:06:00,
2013-04-03 01:08:00,26.5,18.4,30.23,SSW,195,4.0,9.0,71,0.00,,,0.00,0,Wunderground v.1.15,2013-04-03 05:08:00,
2013-04-03 01:10:00,26.5,18.4,30.23,South,188,3.0,9.0,71,0.00,,,0.00,0,Wunderground v.1.15,2013-04-03 05:10:00,
2013-04-03 01:14:00,26.3,18.5,30.23,North,355,2.0,9.0,72,0.00,,,0.00,0,Wunderground v.1.15,2013-04-03 05:14:00,
2013-04-03 01:16:00,26.2,18.4,30.23,SW,225,2.0,9.0,72,0.00,,,0.00,0,Wunderground v.1.15,2013-04-03 05:16:00,
2013-04-03 01:19:00,26.1,18.3,30.23,West,270,2.0,9.0,72,0.00,,,0.00,0,Wunderground v.1.15,2013-04-03 05:19:00,
2013-04-03 01:21:00,25.9,18.1,30.23,WSW,240,1.0,9.0,72,0.00,,,0.00,0,Wunderground v.1.15,2013-04-03 05:21:00,
2013-04-03 01:23:00,25.8,18.0,30.23,SSW,206,1.0,9.0,72,0.00,,,0.00,0,Wunderground v.1.15,2013-04-03 05:23:00,
2013-04-03 01:27:00,25.7,18.2,30.23,WSW,248,1.0,9.0,73,0.00,,,0.00,0,Wunderground v.1.15,2013-04-03 05:27:00,
2013-04-03 01:28:00,25.7,18.2,30.23,SSW,205,1.0,9.0,73,0.00,,,0.00,0,Wunderground v.1.15,2013-04-03 05:28:00,
2013-04-03 01:29:00,25.7,18.2,30.23,SSW,196,1.0,9.0,73,0.00,,,0.00,0,Wunderground v.1.15,2013-04-03 05:29:00,
2013-04-03 01:33:00,25.6,18.1,30.23,SW,234,1.0,9.0,73,0.00,,,0.00,0,Wunderground v.1.15,2013-04-03 05:33:00,
2013-04-03 01:37:00,25.5,17.7,30.23,SW,222,1.0,9.0,72,0.00,,,0.00,0,Wunderground v.1.15,2013-04-03 05:37:00,
2013-04-03 01:38:00,25.5,17.7,30.23,North,360,1.0,9.0,72,0.00,,,0.00,0,Wunderground v.1.15,2013-04-03 05:38:00,
2013-04-03 01:39:00,25.5,17.7,30.23,West,278,1.0,9.0,72,0.00,,,0.00,0,Wunderground v.1.15,2013-04-03 05:39:00,
2013-04-03 01:43:00,25.4,17.6,30.23,NNW,338,1.0,9.0,72,0.00,,,0.00,0,Wunderground v.1.15,2013-04-03 05:43:00,
2013-04-03 01:45:00,25.4,17.6,30.23,SSW,207,0.0,9.0,72,0.00,,,0.00,0,Wunderground v.1.15,2013-04-03 05:45:00,
2013-04-03 01:48:00,25.4,17.6,30.24,SE,136,1.0,9.0,72,0.00,,,0.00,0,Wunderground v.1.15,2013-04-03 05:48:00,
2013-04-03 01:50:00,25.3,17.5,30.24,SE,139,1.0,9.0,72,0.00,,,0.00,0,Wunderground v.1.15,2013-04-03 05:50:00,
2013-04-03 01:51:00,25.3,17.9,30.24,SSW,194,2.0,9.0,73,0.00,,,0.00,0,Wunderground v.1.15,2013-04-03 05:51:00,
2013-04-03 01:53:00,25.2,18.1,30.24,SSW,198,2.0,9.0,74,0.00,,,0.00,0,Wunderground v.1.15,2013-04-03 05:53:00,
2013-04-03 01:56:00,25.1,18.3,30.24,SSW,207,2.0,9.0,75,0.00,,,0.00,0,Wunderground v.1.15,2013-04-03 05:56:00,
2013-04-03 01:57:00,25.0,18.2,30.24,SW,219,2.0,9.0,75,0.00,,,0.00,0,Wunderground v.1.15,2013-04-03 05:57:00,
2013-04-03 01:59:00,24.9,18.4,30.24,NNW,328,2.0,9.0,76,0.00,,,0.00,0,Wunderground v.1.15,2013-04-03 05:59:00,
2013-04-03 02:02:00,24.7,18.2,30.24,SW,236,1.0,9.0,76,0.00,,,0.00,0,Wunderground v.1.15,2013-04-03 06:02:00,
2013-04-03 02:03:00,24.7,18.5,30.24,SW,236,1.0,9.0,77,0.00,,,0.00,0,Wunderground v.1.15,2013-04-03 06:03:00,
2013-04-03 02:07:00,24.5,18.3,30.24,WSW,245,1.0,9.0,77,0.00,,,0.00,0,Wunderground v.1.15,2013-04-03 06:07:00,
2013-04-03 02:08:00,24.5,18.3,30.24,WSW,245,1.0,9.0,77,0.00,,,0.00,0,Wunderground v.1.15,2013-04-03 06:08:00,
2013-04-03 02:09:00,24.4,18.5,30.25,NNW,327,1.0,9.0,78,0.00,,,0.00,0,Wunderground v.1.15,2013-04-03 06:09:00,
2013-04-03 02:10:00,24.4,18.2,30.24,SW,235,1.0,1.0,77,0.00,,,0.00,0,Wunderground v.1.15,2013-04-03 06:10:00,
2013-04-03 02:14:00,24.3,18.4,30.25,WSW,253,0.0,9.0,78,0.00,,,0.00,0,Wunderground v.1.15,2013-04-03 06:14:00,
2013-04-03 02:15:00,24.2,18.3,30.25,SW,216,0.0,9.0,78,0.00,,,0.00,0,Wunderground v.1.15,2013-04-03 06:15:00,
2013-04-03 02:19:00,24.2,17.7,30.25,NW,311,1.0,9.0,76,0.00,,,0.00,0,Wunderground v.1.15,2013-04-03 06:19:00,
2013-04-03 02:20:00,24.2,17.4,30.25,SW,236,2.0,2.0,75,0.00,,,0.00,0,Wunderground v.1.15,2013-04-03 06:20:00,
2013-04-03 02:21:00,24.1,17.0,30.25,South,178,2.0,4.0,74,0.00,,,0.00,0,Wunderground v.1.15,2013-04-03 06:21:00,
2013-04-03 02:25:00,24.1,16.1,30.25,ESE,104,3.0,9.0,71,0.00,,,0.00,0,Wunderground v.1.15,2013-04-03 06:25:00,
2013-04-03 02:27:00,24.1,15.7,30.25,SSW,198,3.0,9.0,70,0.00,,,0.00,0,Wunderground v.1.15,2013-04-03 06:27:00,
2013-04-03 02:28:00,24.1,15.7,30.25,South,190,3.0,9.0,70,0.00,,,0.00,0,Wunderground v.1.15,2013-04-03 06:28:00,
2013-04-03 02:31:00,24.1,15.4,30.25,SSW,199,3.0,9.0,69,0.00,,,0.00,0,Wunderground v.1.15,2013-04-03 06:31:00,
2013-04-03 02:34:00,24.0,15.0,30.25,SSW,202,3.0,9.0,68,0.00,,,0.00,0,Wunderground v.1.15,2013-04-03 06:34:00,
2013-04-03 02:36:00,24.0,14.6,30.25,SSW,192,3.0,9.0,67,0.00,,,0.00,0,Wunderground v.1.15,2013-04-03 06:36:00,
2013-04-03 02:38:00,24.0,14.6,30.25,SW,216,2.0,9.0,67,0.00,,,0.00,0,Wunderground v.1.15,2013-04-03 06:38:00,
2013-04-03 02:41:00,24.0,14.6,30.25,SSW,205,2.0,9.0,67,0.00,,,0.00,0,Wunderground v.1.15,2013-04-03 06:41:00,
2013-04-03 02:44:00,24.0,14.6,30.25,SSW,209,2.0,9.0,67,0.00,,,0.00,0,Wunderground v.1.15,2013-04-03 06:44:00,
2013-04-03 02:49:00,23.9,14.2,30.26,SSW,196,3.0,9.0,66,0.00,,,0.00,0,Wunderground v.1.15,2013-04-03 06:49:00,
2013-04-03 02:50:00,23.9,14.2,30.26,South,188,3.0,9.0,66,0.00,,,0.00,0,Wunderground v.1.15,2013-04-03 06:50:00,
2013-04-03 02:51:00,23.9,13.8,30.26,SW,220,4.0,9.0,65,0.00,,,0.00,0,Wunderground v.1.15,2013-04-03 06:51:00,
2013-04-03 02:55:00,23.9,13.1,30.26,SSE,168,4.0,9.0,63,0.00,,,0.00,0,Wunderground v.1.15,2013-04-03 06:55:00,
2013-04-03 02:56:00,23.9,13.1,30.25,WSW,247,4.0,9.0,63,0.00,,,0.00,0,Wunderground v.1.15,2013-04-03 06:56:00,
2013-04-03 02:58:00,23.8,12.7,30.26,SSW,212,4.0,9.0,62,0.00,,,0.00,0,Wunderground v.1.15,2013-04-03 06:58:00,
2013-04-03 03:00:00,23.8,12.7,30.25,SW,217,3.0,9.0,62,0.00,,,0.00,0,Wunderground v.1.15,2013-04-03 07:00:00,
2013-04-03 03:02:00,23.7,12.2,30.25,WNW,291,3.0,9.0,61,0.00,,,0.00,0,Wunderground v.1.15,2013-04-03 07:02:00,
2013-04-03 03:04:00,23.7,12.2,30.25,SSW,211,3.0,9.0,61,0.00,,,0.00,0,Wunderground v.1.15,2013-04-03 07:04:00,
2013-04-03 03:05:00,23.7,12.2,30.25,SSW,213,3.0,9.0,61,0.00,,,0.00,0,Wunderground v.1.15,2013-04-03 07:05:00,
2013-04-03 03:07:00,23.6,12.1,30.25,South,169,2.0,9.0,61,0.00,,,0.00,0,Wunderground v.1.15,2013-04-03 07:07:00,
2013-04-03 03:09:00,23.6,11.7,30.25,WNW,286,2.0,9.0,60,0.00,,,0.00,0,Wunderground v.1.15,2013-04-03 07:09:00,
2013-04-03 03:10:00,23.6,11.7,30.25,SSW,201,2.0,9.0,60,0.00,,,0.00,0,Wunderground v.1.15,2013-04-03 07:10:00,
2013-04-03 03:13:00,23.5,11.6,30.25,SSW,212,2.0,9.0,60,0.00,,,0.00,0,Wunderground v.1.15,2013-04-03 07:13:00,
2013-04-03 03:15:00,23.5,11.6,30.25,South,171,2.0,9.0,60,0.00,,,0.00,0,Wunderground v.1.15,2013-04-03 07:15:00,
2013-04-03 03:16:00,23.4,11.5,30.25,SW,232,2.0,9.0,60,0.00,,,0.00,0,Wunderground v.1.15,2013-04-03 07:16:00,
2013-04-03 03:19:00,23.4,11.5,30.26,SSW,209,2.0,9.0,60,0.00,,,0.00,0,Wunderground v.1.15,2013-04-03 07:19:00,
2013-04-03 03:21:00,23.4,11.5,30.25,SW,214,2.0,9.0,60,0.00,,,0.00,0,Wunderground v.1.15,2013-04-03 07:21:00,
2013-04-03 03:22:00,23.3,11.4,30.26,SW,221,2.0,9.0,60,0.00,,,0.00,0,Wunderground v.1.15,2013-04-03 07:22:00,
2013-04-03 03:23:00,23.3,11.4,30.25,WSW,244,2.0,9.0,60,0.00,,,0.00,0,Wunderground v.1.15,2013-04-03 07:23:00,
2013-04-03 03:24:00,23.3,11.4,30.26,SSW,195,2.0,9.0,60,0.00,,,0.00,0,Wunderground v.1.15,2013-04-03 07:24:00,
2013-04-03 03:27:00,23.2,11.4,30.25,SSW,209,2.0,9.0,60,0.00,,,0.00,0,Wunderground v.1.15,2013-04-03 07:27:00,
2013-04-03 03:30:00,23.2,11.0,30.26,SSW,205,1.0,9.0,59,0.00,,,0.00,0,Wunderground v.1.15,2013-04-03 07:30:00,
2013-04-03 03:32:00,23.1,10.5,30.25,SSW,212,1.0,9.0,58,0.00,,,0.00,0,Wunderground v.1.15,2013-04-03 07:32:00,
2013-04-03 03:33:00,23.1,10.5,30.26,SW,221,1.0,9.0,58,0.00,,,0.00,0,Wunderground v.1.15,2013-04-03 07:33:00,
2013-04-03 03:36:00,23.1,10.5,30.25,SW,221,1.0,9.0,58,0.00,,,0.00,0,Wunderground v.1.15,2013-04-03 07:36:00,
2013-04-03 03:38:00,23.0,10.4,30.26,SSW,209,1.0,9.0,58,0.00,,,0.00,0,Wunderground v.1.15,2013-04-03 07:38:00,
2013-04-03 03:43:00,22.9,10.3,30.25,SSE,167,1.0,9.0,58,0.00,,,0.00,0,Wunderground v.1.15,2013-04-03 07:43:00,
2013-04-03 03:45:00,22.9,9.9,30.26,West,262,1.0,9.0,57,0.00,,,0.00,0,Wunderground v.1.15,2013-04-03 07:45:00,
2013-04-03 03:46:00,22.9,10.3,30.25,WSW,242,1.0,9.0,58,0.00,,,0.00,0,Wunderground v.1.15,2013-04-03 07:46:00,
2013-04-03 03:50:00,22.7,10.1,30.26,SSW,208,1.0,9.0,58,0.00,,,0.00,0,Wunderground v.1.15,2013-04-03 07:50:00,
2013-04-03 03:51:00,22.7,10.1,30.26,SW,218,1.0,9.0,58,0.00,,,0.00,0,Wunderground v.1.15,2013-04-03 07:51:00,
2013-04-03 03:54:00,22.7,10.1,30.26,SW,225,1.0,9.0,58,0.00,,,0.00,0,Wunderground v.1.15,2013-04-03 07:54:00,
2013-04-03 03:56:00,22.6,10.0,30.26,SSW,196,1.0,9.0,58,0.00,,,0.00,0,Wunderground v.1.15,2013-04-03 07:56:00,
2013-04-03 03:57:00,22.6,10.0,30.26,SSW,198,1.0,9.0,58,0.00,,,0.00,0,Wunderground v.1.15,2013-04-03 07:57:00,
2013-04-03 04:00:00,22.6,10.0,30.26,WSW,241,1.0,1.0,58,0.00,,,0.00,0,Wunderground v.1.15,2013-04-03 08:00:00,
2013-04-03 04:04:00,22.5,9.5,30.26,WNW,302,1.0,9.0,57,0.00,,,0.00,0,Wunderground v.1.15,2013-04-03 08:04:00,
2013-04-03 04:05:00,22.5,9.5,30.26,SSW,201,1.0,9.0,57,0.00,,,0.00,0,Wunderground v.1.15,2013-04-03 08:05:00,
2013-04-03 04:06:00,22.5,9.5,30.26,SSW,201,1.0,9.0,57,0.00,,,0.00,0,Wunderground v.1.15,2013-04-03 08:06:00,
2013-04-03 04:10:00,22.5,9.9,30.26,SW,229,1.0,1.0,58,0.00,,,0.00,0,Wunderground v.1.15,2013-04-03 08:10:00,
2013-04-03 04:11:00,22.5,9.9,30.26,SW,226,1.0,9.0,58,0.00,,,0.00,0,Wunderground v.1.15,2013-04-03 08:11:00,
2013-04-03 04:14:00,22.5,9.9,30.26,SW,234,0.0,9.0,58,0.00,,,0.00,0,Wunderground v.1.15,2013-04-03 08:14:00,
2013-04-03 04:16:00,22.4,9.4,30.26,ESE,120,0.0,9.0,57,0.00,,,0.00,0,Wunderground v.1.15,2013-04-03 08:16:00,
2013-04-03 04:17:00,22.4,9.4,30.26,SW,216,1.0,9.0,57,0.00,,,0.00,0,Wunderground v.1.15,2013-04-03 08:17:00,
2013-04-03 04:20:00,22.4,9.4,30.26,SSW,211,1.0,9.0,57,0.00,,,0.00,0,Wunderground v.1.15,2013-04-03 08:20:00,
2013-04-03 04:22:00,22.4,9.4,30.26,WNW,284,1.0,9.0,57,0.00,,,0.00,0,Wunderground v.1.15,2013-04-03 08:22:00,
2013-04-03 04:24:00,22.4,9.4,30.26,SW,214,1.0,9.0,57,0.00,,,0.00,0,Wunderground v.1.15,2013-04-03 08:24:00,
2013-04-03 04:26:00,22.4,9.8,30.26,North,5,1.0,9.0,58,0.00,,,0.00,0,Wunderground v.1.15,2013-04-03 08:26:00,
2013-04-03 04:29:00,22.4,9.4,30.27,SSW,198,1.0,9.0,57,0.00,,,0.00,0,Wunderground v.1.15,2013-04-03 08:29:00,
2013-04-03 04:30:00,22.4,9.8,30.27,West,261,1.0,1.0,58,0.00,,,0.00,0,Wunderground v.1.15,2013-04-03 08:30:00,
2013-04-03 04:32:00,22.4,9.4,30.27,WNW,283,1.0,9.0,57,0.00,,,0.00,0,Wunderground v.1.15,2013-04-03 08:32:00,
2013-04-03 04:34:00,22.4,9.4,30.27,NNW,329,1.0,9.0,57,0.00,,,0.00,0,Wunderground v.1.15,2013-04-03 08:34:00,
2013-04-03 04:35:00,22.4,9.4,30.27,SW,225,0.0,9.0,57,0.00,,,0.00,0,Wunderground v.1.15,2013-04-03 08:35:00,
2013-04-03 04:39:00,22.3,9.7,30.27,SW,220,1.0,9.0,58,0.00,,,0.00,0,Wunderground v.1.15,2013-04-03 08:39:00,
2013-04-03 04:41:00,22.3,9.7,30.27,NNE,18,1.0,9.0,58,0.00,,,0.00,0,Wunderground v.1.15,2013-04-03 08:41:00,
2013-04-03 04:45:00,22.2,9.7,30.27,NE,36,0.0,9.0,58,0.00,,,0.00,0,Wunderground v.1.15,2013-04-03 08:45:00,
2013-04-03 04:46:00,22.2,9.7,30.27,West,273,1.0,9.0,58,0.00,,,0.00,0,Wunderground v.1.15,2013-04-03 08:46:00,
2013-04-03 04:50:00,22.1,9.6,30.27,SSW,198,1.0,1.0,58,0.00,,,0.00,0,Wunderground v.1.15,2013-04-03 08:50:00,
2013-04-03 04:52:00,22.1,9.6,30.27,SSE,165,1.0,9.0,58,0.00,,,0.00,0,Wunderground v.1.15,2013-04-03 08:52:00,
2013-04-03 04:55:00,22.0,9.5,30.27,SSW,203,1.0,9.0,58,0.00,,,0.00,0,Wunderground v.1.15,2013-04-03 08:55:00,
2013-04-03 04:56:00,22.0,9.5,30.27,SW,236,1.0,9.0,58,0.00,,,0.00,0,Wunderground v.1.15,2013-04-03 08:56:00,
2013-04-03 04:58:00,22.0,9.8,30.28,SW,226,1.0,9.0,59,0.00,,,0.00,0,Wunderground v.1.15,2013-04-03 08:58:00,
2013-04-03 05:02:00,21.9,9.7,30.28,NW,315,1.0,9.0,59,0.00,,,0.00,0,Wunderground v.1.15,2013-04-03 09:02:00,
2013-04-03 05:03:00,21.8,9.7,30.28,SW,219,1.0,9.0,59,0.00,,,0.00,0,Wunderground v.1.15,2013-04-03 09:03:00,
2013-04-03 05:04:00,21.8,9.7,30.28,SW,214,1.0,9.0,59,0.00,,,0.00,0,Wunderground v.1.15,2013-04-03 09:04:00,
2013-04-03 05:08:00,21.8,9.7,30.28,SW,234,1.0,9.0,59,0.00,,,0.00,0,Wunderground v.1.15,2013-04-03 09:08:00,
2013-04-03 05:10:00,21.7,9.6,30.28,WNW,284,1.0,9.0,59,0.00,,,0.00,0,Wunderground v.1.15,2013-04-03 09:10:00,
2013-04-03 05:11:00,21.7,9.6,30.28,SW,226,1.0,9.0,59,0.00,,,0.00,0,Wunderground v.1.15,2013-04-03 09:11:00,
2013-04-03 05:13:00,21.7,9.6,30.28,SW,215,1.0,9.0,59,0.00,,,0.00,0,Wunderground v.1.15,2013-04-03 09:13:00,
2013-04-03 05:16:00,21.6,9.5,30.28,SW,234,1.0,9.0,59,0.00,,,0.00,0,Wunderground v.1.15,2013-04-03 09:16:00,
2013-04-03 05:17:00,21.6,9.5,30.29,SSW,209,1.0,9.0,59,0.00,,,0.00,0,Wunderground v.1.15,2013-04-03 09:17:00,
2013-04-03 05:21:00,21.6,9.8,30.29,SW,230,0.0,9.0,60,0.00,,,0.00,0,Wunderground v.1.15,2013-04-03 09:21:00,
2013-04-03 05:26:00,21.5,9.7,30.29,SW,216,0.0,9.0,60,0.00,,,0.00,0,Wunderground v.1.15,2013-04-03 09:26:00,
2013-04-03 05:27:00,21.5,9.7,30.29,SW,217,0.0,9.0,60,0.00,,,0.00,0,Wunderground v.1.15,2013-04-03 09:27:00,
2013-04-03 05:29:00,21.5,9.7,30.29,SW,225,0.0,9.0,60,0.00,,,0.00,0,Wunderground v.1.15,2013-04-03 09:29:00,
2013-04-03 05:30:00,21.5,9.7,30.30,SSW,212,0.0,9.0,60,0.00,,,0.00,0,Wunderground v.1.15,2013-04-03 09:30:00,
2013-04-03 05:32:00,21.5,9.7,30.30,SW,222,1.0,9.0,60,0.00,,,0.00,0,Wunderground v.1.15,2013-04-03 09:32:00,
2013-04-03 05:33:00,21.4,9.7,30.30,SW,218,1.0,9.0,60,0.00,,,0.00,0,Wunderground v.1.15,2013-04-03 09:33:00,
2013-04-03 05:38:00,21.3,9.6,30.30,SW,236,0.0,9.0,60,0.00,,,0.00,0,Wunderground v.1.15,2013-04-03 09:38:00,
2013-04-03 05:39:00,21.3,9.9,30.30,SW,236,0.0,9.0,61,0.00,,,0.00,0,Wunderground v.1.15,2013-04-03 09:39:00,
2013-04-03 05:41:00,21.3,9.9,30.30,SW,234,0.0,9.0,61,0.00,,,0.00,0,Wunderground v.1.15,2013-04-03 09:41:00,
2013-04-03 05:42:00,21.3,9.9,30.30,SW,234,0.0,9.0,61,0.00,,,0.00,0,Wunderground v.1.15,2013-04-03 09:42:00,
2013-04-03 05:46:00,21.1,9.7,30.31,SW,216,0.0,9.0,61,0.00,,,0.00,0,Wunderground v.1.15,2013-04-03 09:46:00,
2013-04-03 05:47:00,21.1,9.7,30.30,SW,215,0.0,9.0,61,0.00,,,0.00,0,Wunderground v.1.15,2013-04-03 09:47:00,
2013-04-03 05:48:00,21.1,9.7,30.31,SSW,212,0.0,9.0,61,0.00,,,0.00,0,Wunderground v.1.15,2013-04-03 09:48:00,
2013-04-03 05:52:00,21.0,9.6,30.31,SW,217,0.0,9.0,61,0.00,,,0.00,0,Wunderground v.1.15,2013-04-03 09:52:00,
2013-04-03 05:53:00,21.0,9.6,30.31,SW,217,0.0,9.0,61,0.00,,,0.00,0,Wunderground v.1.15,2013-04-03 09:53:00,
2013-04-03 05:54:00,20.9,9.5,30.31,SW,217,0.0,9.0,61,0.00,,,0.00,0,Wunderground v.1.15,2013-04-03 09:54:00,
2013-04-03 05:56:00,20.9,9.5,30.31,SW,217,0.0,9.0,61,0.00,,,0.00,0,Wunderground v.1.15,2013-04-03 09:56:00,
2013-04-03 05:59:00,20.8,9.8,30.31,SW,217,0.0,9.0,62,0.00,,,0.00,0,Wunderground v.1.15,2013-04-03 09:59:00,
2013-04-03 06:00:00,20.8,9.8,30.31,SW,217,0.0,9.0,62,0.00,,,0.00,0,Wunderground v.1.15,2013-04-03 10:00:00,
2013-04-03 06:01:00,20.8,9.8,30.31,SW,217,0.0,9.0,62,0.00,,,0.00,0,Wunderground v.1.15,2013-04-03 10:01:00,
2013-04-03 06:02:00,20.7,9.7,30.31,SW,217,0.0,9.0,62,0.00,,,0.00,0,Wunderground v.1.15,2013-04-03 10:02:00,
2013-04-03 06:05:00,20.6,9.6,30.31,SW,217,0.0,9.0,62,0.00,,,0.00,0,Wunderground v.1.15,2013-04-03 10:05:00,
2013-04-03 06:07:00,20.6,9.6,30.31,SW,215,0.0,9.0,62,0.00,,,0.00,0,Wunderground v.1.15,2013-04-03 10:07:00,
2013-04-03 06:08:00,20.6,9.6,30.31,SSW,213,0.0,9.0,62,0.00,,,0.00,0,Wunderground v.1.15,2013-04-03 10:08:00,
2013-04-03 06:13:00,20.6,9.6,30.31,West,271,0.0,9.0,62,0.00,,,0.00,0,Wunderground v.1.15,2013-04-03 10:13:00,
2013-04-03 06:14:00,20.6,9.6,30.31,North,355,0.0,9.0,62,0.00,,,0.00,0,Wunderground v.1.15,2013-04-03 10:14:00,
2013-04-03 06:17:00,20.6,9.6,30.31,SW,221,0.0,9.0,62,0.00,,,0.00,0,Wunderground v.1.15,2013-04-03 10:17:00,
2013-04-03 06:19:00,20.6,9.6,30.32,WNW,288,0.0,9.0,62,0.00,,,0.00,0,Wunderground v.1.15,2013-04-03 10:19:00,
2013-04-03 06:21:00,20.6,9.6,30.31,SSW,208,0.0,9.0,62,0.00,,,0.00,0,Wunderground v.1.15,2013-04-03 10:21:00,
2013-04-03 06:25:00,20.6,10.0,30.32,SSW,204,1.0,9.0,63,0.00,,,0.00,0,Wunderground v.1.15,2013-04-03 10:25:00,
2013-04-03 06:26:00,20.6,10.0,30.32,SSW,208,1.0,9.0,63,0.00,,,0.00,0,Wunderground v.1.15,2013-04-03 10:26:00,
2013-04-03 06:27:00,20.6,10.0,30.32,SSW,208,1.0,9.0,63,0.00,,,0.00,0,Wunderground v.1.15,2013-04-03 10:27:00,
2013-04-03 06:29:00,20.6,10.0,30.32,SSW,210,1.0,9.0,63,0.00,,,0.00,0,Wunderground v.1.15,2013-04-03 10:29:00,
2013-04-03 06:32:00,20.6,10.3,30.32,SW,219,1.0,9.0,64,0.00,,,0.00,0,Wunderground v.1.15,2013-04-03 10:32:00,
2013-04-03 06:33:00,20.6,10.3,30.32,SW,215,1.0,9.0,64,0.00,,,0.00,0,Wunderground v.1.15,2013-04-03 10:33:00,
2013-04-03 06:34:00,20.6,10.3,30.32,NW,304,1.0,9.0,64,0.00,,,0.00,0,Wunderground v.1.15,2013-04-03 10:34:00,
2013-04-03 06:38:00,20.6,10.3,30.32,SSW,199,1.0,9.0,64,0.00,,,0.00,0,Wunderground v.1.15,2013-04-03 10:38:00,
2013-04-03 06:40:00,20.6,10.3,30.32,SSW,207,1.0,9.0,64,0.00,,,0.00,0,Wunderground v.1.15,2013-04-03 10:40:00,
2013-04-03 06:45:00,20.6,10.3,30.32,SW,224,1.0,9.0,64,0.00,,,0.00,0,Wunderground v.1.15,2013-04-03 10:45:00,
2013-04-03 06:46:00,20.6,10.3,30.32,South,188,1.0,9.0,64,0.00,,,0.00,0,Wunderground v.1.15,2013-04-03 10:46:00,
2013-04-03 06:47:00,20.6,10.3,30.32,WSW,238,1.0,9.0,64,0.00,,,0.00,0,Wunderground v.1.15,2013-04-03 10:47:00,
2013-04-03 06:52:00,20.6,10.3,30.33,SW,217,0.0,9.0,64,0.00,,,0.00,0,Wunderground v.1.15,2013-04-03 10:52:00,
2013-04-03 06:53:00,20.5,10.2,30.33,SW,218,0.0,9.0,64,0.00,,,0.00,0,Wunderground v.1.15,2013-04-03 10:53:00,
2013-04-03 06:54:00,20.5,10.2,30.33,WNW,302,0.0,9.0,64,0.00,,,0.00,0,Wunderground v.1.15,2013-04-03 10:54:00,
2013-04-03 06:59:00,20.4,10.1,30.33,WSW,247,0.0,9.0,64,0.00,,,0.00,0,Wunderground v.1.15,2013-04-03 10:59:00,
2013-04-03 07:00:00,20.4,10.1,30.33,WSW,242,0.0,9.0,64,0.00,,,0.00,0,Wunderground v.1.15,2013-04-03 11:00:00,
2013-04-03 07:04:00,20.4,10.5,30.33,SW,234,0.0,9.0,65,0.00,,,0.00,0,Wunderground v.1.15,2013-04-03 11:04:00,
2013-04-03 07:06:00,20.4,10.5,30.33,SW,234,0.0,9.0,65,0.00,,,0.00,0,Wunderground v.1.15,2013-04-03 11:06:00,
2013-04-03 07:08:00,20.4,10.5,30.34,SW,232,0.0,9.0,65,0.00,,,0.00,0,Wunderground v.1.15,2013-04-03 11:08:00,
2013-04-03 07:09:00,20.4,10.5,30.33,SW,232,0.0,9.0,65,0.00,,,0.00,0,Wunderground v.1.15,2013-04-03 11:09:00,
2013-04-03 07:14:00,20.4,10.5,30.34,SW,218,1.0,9.0,65,0.00,,,0.00,0,Wunderground v.1.15,2013-04-03 11:14:00,
2013-04-03 07:16:00,20.4,10.5,30.34,SW,216,1.0,9.0,65,0.00,,,0.00,0,Wunderground v.1.15,2013-04-03 11:16:00,
2013-04-03 07:17:00,20.4,10.5,30.34,SW,216,1.0,9.0,65,0.00,,,0.00,0,Wunderground v.1.15,2013-04-03 11:17:00,
2013-04-03 07:20:00,20.4,10.8,30.34,SW,217,1.0,1.0,66,0.00,,,0.00,5,Wunderground v.1.15,2013-04-03 11:20:00,
2013-04-03 07:22:00,20.4,10.8,30.34,SW,225,1.0,9.0,66,0.00,,,0.00,5,Wunderground v.1.15,2013-04-03 11:22:00,
2013-04-03 07:23:00,20.4,10.8,30.34,SW,225,1.0,9.0,66,0.00,,,0.00,7,Wunderground v.1.15,2013-04-03 11:23:00,
2013-04-03 07:26:00,20.4,10.5,30.34,SW,220,1.0,9.0,65,0.00,,,0.00,7,Wunderground v.1.15,2013-04-03 11:26:00,
2013-04-03 07:27:00,20.4,10.5,30.34,SW,220,1.0,9.0,65,0.00,,,0.00,7,Wunderground v.1.15,2013-04-03 11:27:00,
2013-04-03 07:30:00,20.4,10.5,30.34,South,190,1.0,9.0,65,0.00,,,0.00,9,Wunderground v.1.15,2013-04-03 11:30:00,
2013-04-03 07:31:00,20.4,10.5,30.34,SSW,212,1.0,9.0,65,0.00,,,0.00,9,Wunderground v.1.15,2013-04-03 11:31:00,
2013-04-03 07:33:00,20.4,10.5,30.34,SSW,209,2.0,9.0,65,0.00,,,0.00,11,Wunderground v.1.15,2013-04-03 11:33:00,
2013-04-03 07:37:00,20.5,10.6,30.34,SSW,201,2.0,9.0,65,0.00,,,0.00,12,Wunderground v.1.15,2013-04-03 11:37:00,
2013-04-03 07:39:00,20.5,10.6,30.34,SW,217,2.0,9.0,65,0.00,,,0.00,16,Wunderground v.1.15,2013-04-03 11:39:00,
2013-04-03 07:43:00,20.6,10.7,30.35,SW,232,1.0,9.0,65,0.00,,,0.00,21,Wunderground v.1.15,2013-04-03 11:43:00,
2013-04-03 07:44:00,20.6,10.7,30.35,SW,216,1.0,9.0,65,0.00,,,0.00,25,Wunderground v.1.15,2013-04-03 11:44:00,
2013-04-03 07:46:00,20.7,10.8,30.34,SW,225,1.0,9.0,65,0.00,,,0.00,30,Wunderground v.1.15,2013-04-03 11:46:00,
2013-04-03 07:49:00,20.7,10.8,30.35,West,278,1.0,9.0,65,0.00,,,0.00,39,Wunderground v.1.15,2013-04-03 11:49:00,
2013-04-03 07:52:00,20.8,10.5,30.35,SW,233,1.0,9.0,64,0.00,,,0.00,37,Wunderground v.1.15,2013-04-03 11:52:00,
2013-04-03 07:57:00,21.0,10.7,30.35,WSW,256,0.0,9.0,64,0.00,,,0.00,39,Wunderground v.1.15,2013-04-03 11:57:00,
2013-04-03 07:58:00,21.0,10.7,30.35,WSW,256,0.0,9.0,64,0.00,,,0.00,44,Wunderground v.1.15,2013-04-03 11:58:00,
2013-04-03 08:00:00,21.0,10.7,30.35,SW,215,0.0,9.0,64,0.00,,,0.00,40,Wunderground v.1.15,2013-04-03 12:00:00,
2013-04-03 08:05:00,21.2,10.6,30.35,SSW,196,1.0,9.0,63,0.00,,,0.00,60,Wunderground v.1.15,2013-04-03 12:05:00,
2013-04-03 08:06:00,21.2,10.6,30.35,SSW,196,1.0,9.0,63,0.00,,,0.00,70,Wunderground v.1.15,2013-04-03 12:06:00,
2013-04-03 08:07:00,21.2,10.6,30.35,SSW,197,1.0,9.0,63,0.00,,,0.00,76,Wunderground v.1.15,2013-04-03 12:07:00,
2013-04-03 08:11:00,21.3,10.7,30.35,SW,217,1.0,9.0,63,0.00,,,0.00,84,Wunderground v.1.15,2013-04-03 12:11:00,
2013-04-03 08:12:00,21.4,10.7,30.35,North,355,1.0,9.0,63,0.00,,,0.00,81,Wunderground v.1.15,2013-04-03 12:12:00,
2013-04-03 08:13:00,21.4,10.7,30.35,NW,315,1.0,9.0,63,0.00,,,0.00,67,Wunderground v.1.15,2013-04-03 12:13:00,
2013-04-03 08:14:00,21.5,10.8,30.35,WSW,243,0.0,9.0,63,0.00,,,0.00,67,Wunderground v.1.15,2013-04-03 12:14:00,
2013-04-03 08:17:00,21.5,10.8,30.35,WSW,248,0.0,9.0,63,0.00,,,0.00,62,Wunderground v.1.15,2013-04-03 12:17:00,
2013-04-03 08:19:00,21.6,10.9,30.35,SW,223,0.0,9.0,63,0.00,,,0.00,47,Wunderground v.1.15,2013-04-03 12:19:00,
2013-04-03 08:23:00,21.8,11.1,30.35,SW,216,0.0,9.0,63,0.00,,,0.00,72,Wunderground v.1.15,2013-04-03 12:23:00,
2013-04-03 08:25:00,21.8,11.1,30.35,West,265,0.0,9.0,63,0.00,,,0.00,51,Wunderground v.1.15,2013-04-03 12:25:00,
2013-04-03 08:26:00,21.8,11.1,30.35,SW,227,1.0,9.0,63,0.00,,,0.00,60,Wunderground v.1.15,2013-04-03 12:26:00,
2013-04-03 08:28:00,21.9,10.9,30.35,SW,229,1.0,9.0,62,0.00,,,0.00,93,Wunderground v.1.15,2013-04-03 12:28:00,
2013-04-03 08:31:00,22.0,11.3,30.35,SSW,213,1.0,9.0,63,0.00,,,0.00,121,Wunderground v.1.15,2013-04-03 12:31:00,
2013-04-03 08:32:00,22.0,11.3,30.35,SSW,212,1.0,9.0,63,0.00,,,0.00,98,Wunderground v.1.15,2013-04-03 12:32:00,
2013-04-03 08:33:00,22.0,11.3,30.35,NW,304,1.0,9.0,63,0.00,,,0.00,88,Wunderground v.1.15,2013-04-03 12:33:00,
2013-04-03 08:38:00,22.1,11.4,30.36,South,178,0.0,9.0,63,0.00,,,0.00,104,Wunderground v.1.15,2013-04-03 12:38:00,
2013-04-03 08:39:00,22.2,11.9,30.36,SSW,207,1.0,9.0,64,0.00,,,0.00,120,Wunderground v.1.15,2013-04-03 12:39:00,
2013-04-03 08:43:00,22.4,11.7,30.36,SSW,206,2.0,9.0,63,0.00,,,0.00,98,Wunderground v.1.15,2013-04-03 12:43:00,
2013-04-03 08:47:00,22.7,12.0,30.36,NE,41,2.0,9.0,63,0.00,,,0.00,111,Wunderground v.1.15,2013-04-03 12:47:00,
2013-04-03 08:49:00,22.8,12.1,30.36,NNE,32,1.0,9.0,63,0.00,,,0.00,97,Wunderground v.1.15,2013-04-03 12:49:00,
2013-04-03 08:55:00,23.2,12.8,30.37,SSW,198,0.0,9.0,64,0.00,,,0.00,114,Wunderground v.1.15,2013-04-03 12:55:00,
2013-04-03 08:57:00,23.3,13.3,30.36,South,173,0.0,9.0,65,0.00,,,0.00,163,Wunderground v.1.15,2013-04-03 12:57:00,
2013-04-03 08:59:00,23.5,13.5,30.36,South,173,0.0,9.0,65,0.00,,,0.00,207,Wunderground v.1.15,2013-04-03 12:59:00,
2013-04-03 09:02:00,23.8,13.7,30.36,SW,220,1.0,9.0,65,0.00,,,0.00,190,Wunderground v.1.15,2013-04-03 13:02:00,
2013-04-03 09:06:00,24.0,13.6,30.36,South,173,2.0,9.0,64,0.00,,,0.00,209,Wunderground v.1.15,2013-04-03 13:06:00,
2013-04-03 09:08:00,24.1,13.7,30.37,SSW,194,2.0,9.0,64,0.00,,,0.00,193,Wunderground v.1.15,2013-04-03 13:08:00,
2013-04-03 09:11:00,24.3,13.9,30.37,SSW,205,3.0,9.0,64,0.00,,,0.00,248,Wunderground v.1.15,2013-04-03 13:11:00,
2013-04-03 09:12:00,24.4,13.6,30.37,NNE,13,3.0,9.0,63,0.00,,,0.00,225,Wunderground v.1.15,2013-04-03 13:12:00,
2013-04-03 09:13:00,24.4,13.6,30.37,SE,146,3.0,9.0,63,0.00,,,0.00,183,Wunderground v.1.15,2013-04-03 13:13:00,
2013-04-03 09:17:00,24.7,14.2,30.37,SW,225,4.0,9.0,64,0.00,,,0.00,162,Wunderground v.1.15,2013-04-03 13:17:00,
2013-04-03 09:18:00,24.7,14.2,30.37,South,180,4.0,9.0,64,0.00,,,0.00,183,Wunderground v.1.15,2013-04-03 13:18:00,
2013-04-03 09:20:00,24.8,14.0,30.37,SSE,168,3.0,9.0,63,0.00,,,0.00,251,Wunderground v.1.15,2013-04-03 13:20:00,
2013-04-03 09:24:00,24.9,13.7,30.37,SSW,194,3.0,9.0,62,0.00,,,0.00,265,Wunderground v.1.15,2013-04-03 13:24:00,
2013-04-03 09:25:00,24.9,13.7,30.37,SSW,210,3.0,9.0,62,0.00,,,0.00,246,Wunderground v.1.15,2013-04-03 13:25:00,
2013-04-03 09:26:00,24.9,13.7,30.37,SW,223,3.0,9.0,62,0.00,,,0.00,190,Wunderground v.1.15,2013-04-03 13:26:00,
2013-04-03 09:27:00,24.9,13.7,30.37,South,190,3.0,9.0,62,0.00,,,0.00,193,Wunderground v.1.15,2013-04-03 13:27:00,
2013-04-03 09:32:00,25.2,14.4,30.37,South,186,4.0,11.0,63,0.00,,,0.00,353,Wunderground v.1.15,2013-04-03 13:32:00,
2013-04-03 09:33:00,25.2,14.4,30.37,SSW,201,4.0,11.0,63,0.00,,,0.00,316,Wunderground v.1.15,2013-04-03 13:33:00,
2013-04-03 09:35:00,25.3,14.8,30.38,South,176,4.0,11.0,64,0.00,,,0.00,244,Wunderground v.1.15,2013-04-03 13:35:00,
2013-04-03 09:37:00,25.4,14.9,30.38,South,189,5.0,11.0,64,0.00,,,0.00,327,Wunderground v.1.15,2013-04-03 13:37:00,
2013-04-03 09:40:00,25.5,14.6,30.38,SSW,209,7.0,10.0,63,0.00,,,0.00,352,Wunderground v.1.15,2013-04-03 13:40:00,
2013-04-03 09:42:00,25.5,14.3,30.37,SSW,192,7.0,11.0,62,0.00,,,0.00,357,Wunderground v.1.15,2013-04-03 13:42:00,
2013-04-03 09:43:00,25.5,15.0,30.38,SSW,201,7.0,11.0,64,0.00,,,0.00,339,Wunderground v.1.15,2013-04-03 13:43:00,
2013-04-03 09:45:00,25.5,14.6,30.38,SSW,213,8.0,11.0,63,0.00,,,0.00,374,Wunderground v.1.15,2013-04-03 13:45:00,
2013-04-03 09:47:00,25.5,14.6,30.38,SSW,200,8.0,11.0,63,0.00,,,0.00,229,Wunderground v.1.15,2013-04-03 13:47:00,
2013-04-03 09:50:00,25.4,14.9,30.38,South,182,8.0,8.0,64,0.00,,,0.00,243,Wunderground v.1.15,2013-04-03 13:50:00,
2013-04-03 09:52:00,25.5,14.6,30.38,South,190,7.0,10.0,63,0.00,,,0.00,301,Wunderground v.1.15,2013-04-03 13:52:00,
2013-04-03 09:54:00,25.5,14.6,30.38,SSW,195,7.0,10.0,63,0.00,,,0.00,336,Wunderground v.1.15,2013-04-03 13:54:00,
2013-04-03 09:57:00,25.5,15.0,30.38,SSW,198,7.0,10.0,64,0.00,,,0.00,357,Wunderground v.1.15,2013-04-03 13:57:00,
2013-04-03 10:00:00,25.7,15.2,30.38,SSW,198,6.0,6.0,64,0.00,,,0.00,250,Wunderground v.1.15,2013-04-03 14:00:00,
2013-04-03 10:03:00,25.8,15.3,30.38,South,177,6.0,9.0,64,0.00,,,0.00,132,Wunderground v.1.15,2013-04-03 14:03:00,
2013-04-03 10:04:00,25.8,14.9,30.38,South,188,6.0,9.0,63,0.00,,,0.00,109,Wunderground v.1.15,2013-04-03 14:04:00,
2013-04-03 10:08:00,25.8,14.9,30.38,South,184,7.0,10.0,63,0.00,,,0.00,278,Wunderground v.1.15,2013-04-03 14:08:00,
2013-04-03 10:10:00,25.9,15.4,30.38,South,178,8.0,8.0,64,0.00,,,0.00,341,Wunderground v.1.15,2013-04-03 14:10:00,
2013-04-03 10:11:00,26.0,15.8,30.38,SSW,211,9.0,9.0,65,0.00,,,0.00,341,Wunderground v.1.15,2013-04-03 14:11:00,
2013-04-03 10:13:00,26.0,15.1,30.38,SSW,201,9.0,9.0,63,0.00,,,0.00,84,Wunderground v.1.15,2013-04-03 14:13:00,
2013-04-03 10:15:00,26.1,15.6,30.38,SW,223,7.0,9.0,64,0.00,,,0.00,445,Wunderground v.1.15,2013-04-03 14:15:00,
2013-04-03 10:16:00,26.1,15.2,30.38,SSW,207,7.0,9.0,63,0.00,,,0.00,445,Wunderground v.1.15,2013-04-03 14:16:00,
2013-04-03 10:19:00,26.2,15.3,30.39,SSW,193,7.0,9.0,63,0.00,,,0.00,135,Wunderground v.1.15,2013-04-03 14:19:00,
2013-04-03 10:21:00,26.2,14.9,30.38,SSW,198,5.0,9.0,62,0.00,,,0.00,397,Wunderground v.1.15,2013-04-03 14:21:00,
2013-04-03 10:22:00,26.2,14.6,30.39,SSW,206,5.0,9.0,61,0.00,,,0.00,211,Wunderground v.1.15,2013-04-03 14:22:00,
2013-04-03 10:24:00,26.2,14.9,30.38,SSW,196,5.0,9.0,62,0.00,,,0.00,139,Wunderground v.1.15,2013-04-03 14:24:00,
2013-04-03 10:27:00,26.3,15.8,30.39,SSW,197,6.0,13.0,64,0.00,,,0.00,325,Wunderground v.1.15,2013-04-03 14:27:00,
2013-04-03 10:29:00,26.4,15.5,30.38,SSW,207,7.0,13.0,63,0.00,,,0.00,360,Wunderground v.1.15,2013-04-03 14:29:00,
2013-04-03 10:30:00,26.5,16.0,30.39,SSW,194,7.0,9.0,64,0.00,,,0.00,411,Wunderground v.1.15,2013-04-03 14:30:00,
2013-04-03 10:31:00,26.5,15.6,30.38,SW,215,8.0,9.0,63,0.00,,,0.00,457,Wunderground v.1.15,2013-04-03 14:31:00,
2013-04-03 10:33:00,26.6,15.3,30.38,SSW,193,8.0,9.0,62,0.00,,,0.00,258,Wunderground v.1.15,2013-04-03 14:33:00,
2013-04-03 10:36:00,26.5,14.9,30.38,South,179,7.0,9.0,61,0.00,,,0.00,153,Wunderground v.1.15,2013-04-03 14:36:00,
2013-04-03 10:37:00,26.6,15.3,30.38,South,181,7.0,9.0,62,0.00,,,0.00,153,Wunderground v.1.15,2013-04-03 14:37:00,
2013-04-03 10:39:00,26.7,16.1,30.38,South,183,7.0,9.0,64,0.00,,,0.00,369,Wunderground v.1.15,2013-04-03 14:39:00,
2013-04-03 10:40:00,26.8,15.9,30.38,SSW,209,7.0,7.0,63,0.00,,,0.00,299,Wunderground v.1.15,2013-04-03 14:40:00,
2013-04-03 10:42:00,26.8,14.8,30.39,SSW,208,6.0,9.0,60,0.00,,,0.00,265,Wunderground v.1.15,2013-04-03 14:42:00,
2013-04-03 10:46:00,27.0,15.3,30.39,South,175,6.0,14.0,61,0.00,,,0.00,213,Wunderground v.1.15,2013-04-03 14:46:00,
2013-04-03 10:48:00,27.0,15.3,30.39,WSW,255,7.0,14.0,61,0.00,,,0.00,381,Wunderground v.1.15,2013-04-03 14:48:00,
2013-04-03 10:49:00,27.1,15.0,30.39,SSW,213,7.0,14.0,60,0.00,,,0.00,403,Wunderground v.1.15,2013-04-03 14:49:00,
2013-04-03 10:55:00,27.2,14.4,30.39,SSW,207,7.0,9.0,58,0.00,,,0.00,478,Wunderground v.1.15,2013-04-03 14:55:00,
2013-04-03 10:56:00,27.2,14.4,30.39,SW,227,7.0,9.0,58,0.00,,,0.00,489,Wunderground v.1.15,2013-04-03 14:56:00,
2013-04-03 10:57:00,27.2,14.4,30.39,South,177,7.0,9.0,58,0.00,,,0.00,517,Wunderground v.1.15,2013-04-03 14:57:00,
2013-04-03 10:59:00,27.0,13.4,30.39,SSW,206,7.0,9.0,56,0.00,,,0.00,580,Wunderground v.1.15,2013-04-03 14:59:00,
2013-04-03 11:03:00,27.0,13.8,30.39,South,183,7.0,9.0,57,0.00,,,0.00,504,Wunderground v.1.15,2013-04-03 15:03:00,
2013-04-03 11:04:00,27.0,14.2,30.39,SSW,197,7.0,9.0,58,0.00,,,0.00,503,Wunderground v.1.15,2013-04-03 15:04:00,
2013-04-03 11:05:00,27.1,14.3,30.39,South,190,7.0,9.0,58,0.00,,,0.00,446,Wunderground v.1.15,2013-04-03 15:05:00,
2013-04-03 11:09:00,27.3,14.8,30.39,SSW,198,6.0,16.0,59,0.00,,,0.00,582,Wunderground v.1.15,2013-04-03 15:09:00,
2013-04-03 11:10:00,27.4,14.5,30.39,South,188,6.0,6.0,58,0.00,,,0.00,536,Wunderground v.1.15,2013-04-03 15:10:00,
2013-04-03 11:11:00,27.4,14.9,30.39,SSW,203,6.0,7.0,59,0.00,,,0.00,536,Wunderground v.1.15,2013-04-03 15:11:00,
2013-04-03 11:14:00,27.5,13.4,30.39,South,182,7.0,11.0,55,0.00,,,0.00,431,Wunderground v.1.15,2013-04-03 15:14:00,
2013-04-03 11:17:00,27.5,14.2,30.39,SW,234,8.0,12.0,57,0.00,,,0.00,320,Wunderground v.1.15,2013-04-03 15:17:00,
2013-04-03 11:18:00,27.5,14.2,30.39,SW,215,8.0,12.0,57,0.00,,,0.00,401,Wunderground v.1.15,2013-04-03 15:18:00,
2013-04-03 11:19:00,27.5,14.2,30.39,South,178,8.0,20.0,57,0.00,,,0.00,411,Wunderground v.1.15,2013-04-03 15:19:00,
2013-04-03 11:23:00,27.7,14.4,30.39,SSW,204,9.0,12.0,57,0.00,,,0.00,589,Wunderground v.1.15,2013-04-03 15:23:00,
2013-04-03 11:25:00,27.7,14.0,30.40,SSW,196,9.0,12.0,56,0.00,,,0.00,668,Wunderground v.1.15,2013-04-03 15:25:00,
2013-04-03 11:29:00,27.8,14.5,30.39,SSW,209,9.0,12.0,57,0.00,,,0.00,675,Wunderground v.1.15,2013-04-03 15:29:00,
2013-04-03 11:30:00,27.8,14.5,30.40,SSW,202,8.0,11.0,57,0.00,,,0.00,675,Wunderground v.1.15,2013-04-03 15:30:00,
2013-04-03 11:31:00,27.9,14.6,30.40,SSW,200,9.0,11.0,57,0.00,,,0.00,682,Wunderground v.1.15,2013-04-03 15:31:00,
2013-04-03 11:36:00,27.9,14.2,30.40,WSW,250,8.0,12.0,56,0.00,,,0.00,689,Wunderground v.1.15,2013-04-03 15:36:00,
2013-04-03 11:37:00,28.0,14.3,30.40,SW,219,8.0,12.0,56,0.00,,,0.00,675,Wunderground v.1.15,2013-04-03 15:37:00,
2013-04-03 11:39:00,28.1,15.2,30.40,South,186,7.0,15.0,58,0.00,,,0.00,673,Wunderground v.1.15,2013-04-03 15:39:00,
2013-04-03 11:42:00,28.5,15.6,30.40,South,180,7.0,11.0,58,0.00,,,0.00,691,Wunderground v.1.15,2013-04-03 15:42:00,
2013-04-03 11:43:00,28.5,15.6,30.40,SSW,198,7.0,12.0,58,0.00,,,0.00,705,Wunderground v.1.15,2013-04-03 15:43:00,
2013-04-03 11:45:00,28.4,15.5,30.40,SSW,213,7.0,12.0,58,0.00,,,0.00,705,Wunderground v.1.15,2013-04-03 15:45:00,
2013-04-03 11:49:00,28.4,15.9,30.40,South,189,8.0,14.0,59,0.00,,,0.00,717,Wunderground v.1.15,2013-04-03 15:49:00,
2013-04-03 11:51:00,28.4,15.5,30.40,South,180,8.0,8.0,58,0.00,,,0.00,710,Wunderground v.1.15,2013-04-03 15:51:00,
2013-04-03 11:53:00,28.4,15.9,30.40,SSW,197,8.0,9.0,59,0.00,,,0.00,708,Wunderground v.1.15,2013-04-03 15:53:00,
2013-04-03 11:54:00,28.4,15.9,30.40,South,175,8.0,11.0,59,0.00,,,0.00,693,Wunderground v.1.15,2013-04-03 15:54:00,
2013-04-03 11:55:00,28.5,16.0,30.40,South,188,9.0,11.0,59,0.00,,,0.00,719,Wunderground v.1.15,2013-04-03 15:55:00,
2013-04-03 11:57:00,28.6,16.1,30.40,SSW,211,9.0,14.0,59,0.00,,,0.00,724,Wunderground v.1.15,2013-04-03 15:57:00,
2013-04-03 11:59:00,28.7,16.2,30.40,SW,215,9.0,14.0,59,0.00,,,0.00,729,Wunderground v.1.15,2013-04-03 15:59:00,
2013-04-03 12:03:00,28.8,15.9,30.40,South,186,9.0,12.0,58,0.00,,,0.00,735,Wunderground v.1.15,2013-04-03 16:03:00,
2013-04-03 12:04:00,28.8,15.9,30.40,South,173,8.0,12.0,58,0.00,,,0.00,737,Wunderground v.1.15,2013-04-03 16:04:00,
2013-04-03 12:06:00,28.8,15.9,30.40,South,181,8.0,15.0,58,0.00,,,0.00,740,Wunderground v.1.15,2013-04-03 16:06:00,
2013-04-03 12:10:00,29.0,16.4,30.41,SW,218,9.0,9.0,59,0.00,,,0.00,740,Wunderground v.1.15,2013-04-03 16:10:00,
2013-04-03 12:11:00,29.0,16.4,30.41,SSE,163,9.0,15.0,59,0.00,,,0.00,749,Wunderground v.1.15,2013-04-03 16:11:00,
2013-04-03 12:13:00,29.0,16.1,30.41,SSW,193,9.0,15.0,58,0.00,,,0.00,749,Wunderground v.1.15,2013-04-03 16:13:00,
2013-04-03 12:15:00,29.0,15.7,30.41,South,181,9.0,15.0,57,0.00,,,0.00,740,Wunderground v.1.15,2013-04-03 16:15:00,
2013-04-03 12:17:00,29.0,17.2,30.41,SSE,165,8.0,15.0,61,0.00,,,0.00,731,Wunderground v.1.15,2013-04-03 16:17:00,
2013-04-03 12:18:00,29.2,17.0,30.41,SSW,200,8.0,15.0,60,0.00,,,0.00,752,Wunderground v.1.15,2013-04-03 16:18:00,
2013-04-03 12:22:00,29.5,17.3,30.41,South,173,7.0,13.0,60,0.00,,,0.00,754,Wunderground v.1.15,2013-04-03 16:22:00,
2013-04-03 12:23:00,29.6,17.0,30.41,South,175,8.0,18.0,59,0.00,,,0.00,756,Wunderground v.1.15,2013-04-03 16:23:00,
2013-04-03 12:24:00,29.5,16.5,30.41,SSW,200,8.0,18.0,58,0.00,,,0.00,759,Wunderground v.1.15,2013-04-03 16:24:00,
2013-04-03 12:29:00,29.5,16.5,30.41,South,183,9.0,18.0,58,0.00,,,0.00,758,Wunderground v.1.15,2013-04-03 16:29:00,
2013-04-03 12:30:00,29.4,16.8,30.41,SSW,208,10.0,10.0,59,0.00,,,0.00,754,Wunderground v.1.15,2013-04-03 16:30:00,
2013-04-03 12:32:00,29.5,17.3,30.41,South,177,10.0,20.0,60,0.00,,,0.00,775,Wunderground v.1.15,2013-04-03 16:32:00,
2013-04-03 12:33:00,29.6,17.4,30.41,South,185,10.0,20.0,60,0.00,,,0.00,770,Wunderground v.1.15,2013-04-03 16:33:00,
2013-04-03 12:35:00,29.7,17.5,30.42,South,180,10.0,20.0,60,0.00,,,0.00,779,Wunderground v.1.15,2013-04-03 16:35:00,
2013-04-03 12:36:00,29.7,17.5,30.42,South,178,10.0,20.0,60,0.00,,,0.00,779,Wunderground v.1.15,2013-04-03 16:36:00,
2013-04-03 12:37:00,29.7,17.1,30.42,South,187,10.0,20.0,59,0.00,,,0.00,766,Wunderground v.1.15,2013-04-03 16:37:00,
2013-04-03 12:41:00,29.6,17.4,30.41,SSW,192,11.0,20.0,60,0.00,,,0.00,763,Wunderground v.1.15,2013-04-03 16:41:00,
2013-04-03 12:42:00,29.6,17.4,30.41,South,169,11.0,20.0,60,0.00,,,0.00,773,Wunderground v.1.15,2013-04-03 16:42:00,
2013-04-03 12:44:00,29.6,17.8,30.41,South,187,11.0,20.0,61,0.00,,,0.00,768,Wunderground v.1.15,2013-04-03 16:44:00,
2013-04-03 12:45:00,29.6,17.8,30.41,SSE,163,11.0,20.0,61,0.00,,,0.00,761,Wunderground v.1.15,2013-04-03 16:45:00,
2013-04-03 12:49:00,29.9,17.3,30.42,SW,217,11.0,20.0,59,0.00,,,0.00,772,Wunderground v.1.15,2013-04-03 16:49:00,
2013-04-03 12:50:00,29.9,17.3,30.42,SSW,202,10.0,10.0,59,0.00,,,0.00,777,Wunderground v.1.15,2013-04-03 16:50:00,
2013-04-03 12:52:00,29.9,17.3,30.42,South,190,9.0,20.0,59,0.00,,,0.00,775,Wunderground v.1.15,2013-04-03 16:52:00,
2013-04-03 12:55:00,29.9,16.9,30.42,South,186,9.0,20.0,58,0.00,,,0.00,779,Wunderground v.1.15,2013-04-03 16:55:00,
2013-04-03 12:56:00,29.8,16.8,30.42,South,178,9.0,20.0,58,0.00,,,0.00,772,Wunderground v.1.15,2013-04-03 16:56:00,
2013-04-03 13:00:00,29.9,17.3,30.42,SW,227,8.0,8.0,59,0.00,,,0.00,758,Wunderground v.1.15,2013-04-03 17:00:00,
2013-04-03 13:05:00,29.9,18.1,30.41,South,180,8.0,20.0,61,0.00,,,0.00,795,Wunderground v.1.15,2013-04-03 17:05:00,
2013-04-03 13:06:00,29.9,18.1,30.41,SSE,161,8.0,20.0,61,0.00,,,0.00,773,Wunderground v.1.15,2013-04-03 17:06:00,
2013-04-03 13:11:00,30.1,18.3,30.41,South,178,8.0,20.0,61,0.00,,,0.00,761,Wunderground v.1.15,2013-04-03 17:11:00,
2013-04-03 13:12:00,30.1,18.3,30.41,SSW,192,8.0,20.0,61,0.00,,,0.00,740,Wunderground v.1.15,2013-04-03 17:12:00,
2013-04-03 13:14:00,30.2,18.4,30.41,SSW,204,8.0,20.0,61,0.00,,,0.00,770,Wunderground v.1.15,2013-04-03 17:14:00,
2013-04-03 13:18:00,30.3,18.1,30.41,South,184,7.0,20.0,60,0.00,,,0.00,777,Wunderground v.1.15,2013-04-03 17:18:00,
2013-04-03 13:19:00,30.3,18.5,30.41,South,171,7.0,20.0,61,0.00,,,0.00,789,Wunderground v.1.15,2013-04-03 17:19:00,
2013-04-03 13:23:00,30.5,19.0,30.40,South,181,8.0,20.0,62,0.00,,,0.00,779,Wunderground v.1.15,2013-04-03 17:23:00,
2013-04-03 13:25:00,30.8,20.0,30.40,SSE,167,7.0,20.0,64,0.00,,,0.00,782,Wunderground v.1.15,2013-04-03 17:25:00,
2013-04-03 13:26:00,30.9,19.4,30.40,SSW,211,7.0,20.0,62,0.00,,,0.00,775,Wunderground v.1.15,2013-04-03 17:26:00,
2013-04-03 13:30:00,31.0,19.1,30.40,South,171,7.0,20.0,61,0.00,,,0.00,770,Wunderground v.1.15,2013-04-03 17:30:00,
2013-04-03 13:31:00,31.0,18.3,30.40,SSW,212,7.0,20.0,59,0.00,,,0.00,775,Wunderground v.1.15,2013-04-03 17:31:00,
2013-04-03 13:32:00,31.0,17.9,30.40,SSW,213,6.0,20.0,58,0.00,,,0.00,773,Wunderground v.1.15,2013-04-03 17:32:00,
2013-04-03 13:35:00,30.6,17.2,30.40,SSW,200,7.0,20.0,57,0.00,,,0.00,793,Wunderground v.1.15,2013-04-03 17:35:00,
2013-04-03 13:37:00,30.6,17.6,30.40,South,188,8.0,20.0,58,0.00,,,0.00,786,Wunderground v.1.15,2013-04-03 17:37:00,
2013-04-03 13:39:00,30.8,18.1,30.40,South,173,8.0,20.0,59,0.00,,,0.00,777,Wunderground v.1.15,2013-04-03 17:39:00,
2013-04-03 13:40:00,30.8,17.7,30.40,South,175,9.0,9.0,58,0.00,,,0.00,788,Wunderground v.1.15,2013-04-03 17:40:00,
2013-04-03 13:43:00,31.1,19.2,30.41,South,169,9.0,20.0,61,0.00,,,0.00,793,Wunderground v.1.15,2013-04-03 17:43:00,
2013-04-03 13:44:00,31.2,18.9,30.41,South,177,9.0,20.0,60,0.00,,,0.00,779,Wunderground v.1.15,2013-04-03 17:44:00,
2013-04-03 13:50:00,31.4,18.3,30.42,South,182,9.0,9.0,58,0.00,,,0.00,770,Wunderground v.1.15,2013-04-03 17:50:00,
2013-04-03 13:51:00,31.3,17.8,30.41,SSW,193,9.0,20.0,57,0.00,,,0.00,786,Wunderground v.1.15,2013-04-03 17:51:00,
2013-04-03 13:54:00,31.2,17.7,30.41,South,178,10.0,20.0,57,0.00,,,0.00,784,Wunderground v.1.15,2013-04-03 17:54:00,
2013-04-03 13:57:00,31.2,18.1,30.41,SSW,196,10.0,20.0,58,0.00,,,0.00,777,Wunderground v.1.15,2013-04-03 17:57:00,
2013-04-03 13:59:00,31.2,17.7,30.41,SSW,195,10.0,20.0,57,0.00,,,0.00,770,Wunderground v.1.15,2013-04-03 17:59:00,
2013-04-03 14:02:00,31.3,19.0,30.41,SW,225,9.0,20.0,60,0.00,,,0.00,775,Wunderground v.1.15,2013-04-03 18:02:00,
2013-04-03 14:03:00,31.3,18.6,30.42,South,181,9.0,20.0,59,0.00,,,0.00,780,Wunderground v.1.15,2013-04-03 18:03:00,
2013-04-03 14:04:00,31.3,18.6,30.41,South,180,9.0,20.0,59,0.00,,,0.00,779,Wunderground v.1.15,2013-04-03 18:04:00,
2013-04-03 14:08:00,31.3,18.6,30.41,South,182,9.0,20.0,59,0.00,,,0.00,766,Wunderground v.1.15,2013-04-03 18:08:00,
2013-04-03 14:09:00,31.3,18.2,30.41,South,186,9.0,20.0,58,0.00,,,0.00,761,Wunderground v.1.15,2013-04-03 18:09:00,
2013-04-03 14:13:00,31.4,18.3,30.41,South,171,10.0,20.0,58,0.00,,,0.00,779,Wunderground v.1.15,2013-04-03 18:13:00,
2013-04-03 14:14:00,31.4,17.9,30.41,South,189,10.0,20.0,57,0.00,,,0.00,777,Wunderground v.1.15,2013-04-03 18:14:00,
2013-04-03 14:15:00,31.5,18.4,30.41,SSW,202,10.0,20.0,58,0.00,,,0.00,766,Wunderground v.1.15,2013-04-03 18:15:00,
2013-04-03 14:19:00,31.7,19.0,30.41,South,184,9.0,20.0,59,0.00,,,0.00,759,Wunderground v.1.15,2013-04-03 18:19:00,
2013-04-03 14:20:00,31.7,19.4,30.41,SSW,213,9.0,20.0,60,0.00,,,0.00,759,Wunderground v.1.15,2013-04-03 18:20:00,
2013-04-03 14:21:00,31.8,19.1,30.41,South,171,8.0,20.0,59,0.00,,,0.00,775,Wunderground v.1.15,2013-04-03 18:21:00,
2013-04-03 14:26:00,31.7,18.2,30.41,SW,221,8.0,20.0,57,0.00,,,0.00,759,Wunderground v.1.15,2013-04-03 18:26:00,
2013-04-03 14:27:00,31.7,18.2,30.41,SSW,200,8.0,20.0,57,0.00,,,0.00,756,Wunderground v.1.15,2013-04-03 18:27:00,
2013-04-03 14:28:00,31.7,18.6,30.41,SSE,163,8.0,20.0,58,0.00,,,0.00,766,Wunderground v.1.15,2013-04-03 18:28:00,
2013-04-03 14:31:00,31.6,18.5,30.41,South,175,8.0,20.0,58,0.00,,,0.00,758,Wunderground v.1.15,2013-04-03 18:31:00,
2013-04-03 14:32:00,31.6,18.9,30.41,South,182,8.0,20.0,59,0.00,,,0.00,761,Wunderground v.1.15,2013-04-03 18:32:00,
2013-04-03 14:33:00,31.6,18.5,30.41,South,179,9.0,20.0,58,0.00,,,0.00,756,Wunderground v.1.15,2013-04-03 18:33:00,
2013-04-03 14:34:00,31.6,18.5,30.41,South,176,9.0,20.0,58,0.00,,,0.00,751,Wunderground v.1.15,2013-04-03 18:34:00,
2013-04-03 14:37:00,31.6,18.9,30.41,South,178,9.0,20.0,59,0.00,,,0.00,754,Wunderground v.1.15,2013-04-03 18:37:00,
2013-04-03 14:39:00,31.9,19.2,30.41,South,182,10.0,20.0,59,0.00,,,0.00,749,Wunderground v.1.15,2013-04-03 18:39:00,
2013-04-03 14:40:00,32.0,19.3,30.41,South,180,10.0,20.0,59,0.00,,,0.00,752,Wunderground v.1.15,2013-04-03 18:40:00,
2013-04-03 14:45:00,32.1,19.0,30.41,SW,215,9.0,20.0,58,0.00,,,0.00,744,Wunderground v.1.15,2013-04-03 18:45:00,
2013-04-03 14:46:00,32.2,19.9,30.41,SSW,196,9.0,20.0,60,0.00,,,0.00,735,Wunderground v.1.15,2013-04-03 18:46:00,
2013-04-03 14:47:00,32.2,19.5,30.41,South,184,9.0,20.0,59,0.00,,,0.00,745,Wunderground v.1.15,2013-04-03 18:47:00,
2013-04-03 14:48:00,32.2,19.5,30.41,South,171,9.0,20.0,59,0.00,,,0.00,744,Wunderground v.1.15,2013-04-03 18:48:00,
2013-04-03 14:52:00,32.3,19.6,30.41,SSW,192,9.0,20.0,59,0.00,,,0.00,737,Wunderground v.1.15,2013-04-03 18:52:00,
2013-04-03 14:53:00,32.2,19.1,30.42,SSW,202,9.0,20.0,58,0.00,,,0.00,721,Wunderground v.1.15,2013-04-03 18:53:00,
2013-04-03 14:58:00,31.9,19.2,30.41,SSW,198,9.0,20.0,59,0.00,,,0.00,733,Wunderground v.1.15,2013-04-03 18:58:00,
2013-04-03 14:59:00,31.9,19.6,30.41,SW,220,9.0,20.0,60,0.00,,,0.00,708,Wunderground v.1.15,2013-04-03 18:59:00,
2013-04-03 15:02:00,31.8,18.7,30.41,SW,234,8.0,20.0,58,0.00,,,0.00,714,Wunderground v.1.15,2013-04-03 19:02:00,
2013-04-03 15:03:00,31.7,19.0,30.41,SSE,168,8.0,20.0,59,0.00,,,0.00,715,Wunderground v.1.15,2013-04-03 19:03:00,
2013-04-03 15:08:00,31.7,19.4,30.42,South,169,8.0,20.0,60,0.00,,,0.00,701,Wunderground v.1.15,2013-04-03 19:08:00,
2013-04-03 15:09:00,31.8,19.5,30.42,South,186,8.0,20.0,60,0.00,,,0.00,696,Wunderground v.1.15,2013-04-03 19:09:00,
2013-04-03 15:12:00,32.0,19.3,30.42,SSW,200,9.0,20.0,59,0.00,,,0.00,701,Wunderground v.1.15,2013-04-03 19:12:00,
2013-04-03 15:13:00,32.0,18.9,30.42,SSW,202,9.0,20.0,58,0.00,,,0.00,691,Wunderground v.1.15,2013-04-03 19:13:00,
2013-04-03 15:14:00,32.0,18.9,30.42,South,188,9.0,20.0,58,0.00,,,0.00,703,Wunderground v.1.15,2013-04-03 19:14:00,
2013-04-03 15:15:00,32.0,18.9,30.42,South,187,9.0,20.0,58,0.00,,,0.00,694,Wunderground v.1.15,2013-04-03 19:15:00,
2013-04-03 15:17:00,32.1,19.8,30.42,South,169,9.0,20.0,60,0.00,,,0.00,708,Wunderground v.1.15,2013-04-03 19:17:00,
2013-04-03 15:20:00,32.2,19.5,30.42,SSW,194,10.0,20.0,59,0.00,,,0.00,680,Wunderground v.1.15,2013-04-03 19:20:00,
2013-04-03 15:21:00,32.3,19.2,30.42,SSW,197,10.0,20.0,58,0.00,,,0.00,684,Wunderground v.1.15,2013-04-03 19:21:00,
2013-04-03 15:24:00,32.2,18.2,30.42,South,182,10.0,20.0,56,0.00,,,0.00,663,Wunderground v.1.15,2013-04-03 19:24:00,
2013-04-03 15:25:00,32.1,18.2,30.42,SSW,207,11.0,20.0,56,0.00,,,0.00,673,Wunderground v.1.15,2013-04-03 19:25:00,
2013-04-03 15:27:00,32.0,18.5,30.42,South,182,11.0,20.0,57,0.00,,,0.00,682,Wunderground v.1.15,2013-04-03 19:27:00,
2013-04-03 15:29:00,32.0,18.5,30.42,South,178,10.0,20.0,57,0.00,,,0.00,668,Wunderground v.1.15,2013-04-03 19:29:00,
2013-04-03 15:32:00,32.1,18.6,30.42,SSW,198,10.0,20.0,57,0.00,,,0.00,670,Wunderground v.1.15,2013-04-03 19:32:00,
2013-04-03 15:35:00,32.2,18.2,30.42,South,190,9.0,20.0,56,0.00,,,0.00,673,Wunderground v.1.15,2013-04-03 19:35:00,
2013-04-03 15:36:00,32.3,19.6,30.42,South,182,9.0,20.0,59,0.00,,,0.00,654,Wunderground v.1.15,2013-04-03 19:36:00,
2013-04-03 15:39:00,32.5,19.3,30.42,South,184,8.0,20.0,58,0.00,,,0.00,654,Wunderground v.1.15,2013-04-03 19:39:00,
2013-04-03 15:40:00,32.5,19.7,30.42,SSE,165,9.0,20.0,59,0.00,,,0.00,654,Wunderground v.1.15,2013-04-03 19:40:00,
2013-04-03 15:42:00,32.5,18.9,30.42,South,185,9.0,20.0,57,0.00,,,0.00,635,Wunderground v.1.15,2013-04-03 19:42:00,
2013-04-03 15:46:00,32.6,19.4,30.41,SSW,198,8.0,20.0,58,0.00,,,0.00,631,Wunderground v.1.15,2013-04-03 19:46:00,
2013-04-03 15:47:00,32.6,19.4,30.42,SSW,194,8.0,20.0,58,0.00,,,0.00,645,Wunderground v.1.15,2013-04-03 19:47:00,
2013-04-03 15:48:00,32.6,19.0,30.42,South,176,8.0,20.0,57,0.00,,,0.00,631,Wunderground v.1.15,2013-04-03 19:48:00,
2013-04-03 15:52:00,32.6,18.6,30.42,SSW,208,8.0,20.0,56,0.00,,,0.00,642,Wunderground v.1.15,2013-04-03 19:52:00,
2013-04-03 15:53:00,32.6,18.6,30.42,South,172,8.0,20.0,56,0.00,,,0.00,353,Wunderground v.1.15,2013-04-03 19:53:00,
2013-04-03 15:55:00,32.5,18.9,30.42,SW,223,8.0,20.0,57,0.00,,,0.00,621,Wunderground v.1.15,2013-04-03 19:55:00,
2013-04-03 16:00:00,32.5,18.5,30.41,South,172,9.0,20.0,56,0.00,,,0.00,613,Wunderground v.1.15,2013-04-03 20:00:00,
2013-04-03 16:03:00,32.6,18.2,30.41,South,190,9.0,20.0,55,0.00,,,0.00,599,Wunderground v.1.15,2013-04-03 20:03:00,
2013-04-03 16:06:00,32.6,18.6,30.41,South,182,10.0,20.0,56,0.00,,,0.00,601,Wunderground v.1.15,2013-04-03 20:06:00,
2013-04-03 16:08:00,32.6,18.6,30.41,SSE,167,10.0,20.0,56,0.00,,,0.00,603,Wunderground v.1.15,2013-04-03 20:08:00,
2013-04-03 16:12:00,32.7,17.9,30.41,SSE,167,10.0,20.0,54,0.00,,,0.00,589,Wunderground v.1.15,2013-04-03 20:12:00,
2013-04-03 16:13:00,32.7,17.9,30.41,South,190,10.0,20.0,54,0.00,,,0.00,585,Wunderground v.1.15,2013-04-03 20:13:00,
2013-04-03 16:15:00,32.8,18.8,30.41,South,169,9.0,20.0,56,0.00,,,0.00,578,Wunderground v.1.15,2013-04-03 20:15:00,
2013-04-03 16:17:00,32.9,18.5,30.41,SW,217,8.0,20.0,55,0.00,,,0.00,580,Wunderground v.1.15,2013-04-03 20:17:00,
2013-04-03 16:20:00,32.9,18.1,30.40,SSE,165,7.0,20.0,54,0.00,,,0.00,566,Wunderground v.1.15,2013-04-03 20:20:00,
2013-04-03 16:21:00,32.9,18.9,30.41,South,171,7.0,20.0,56,0.00,,,0.00,568,Wunderground v.1.15,2013-04-03 20:21:00,
2013-04-03 16:22:00,32.9,18.9,30.40,South,183,7.0,20.0,56,0.00,,,0.00,561,Wunderground v.1.15,2013-04-03 20:22:00,
2013-04-03 16:26:00,32.8,18.0,30.40,South,183,7.0,20.0,54,0.00,,,0.00,555,Wunderground v.1.15,2013-04-03 20:26:00,
2013-04-03 16:27:00,32.8,18.4,30.40,SSW,200,7.0,20.0,55,0.00,,,0.00,547,Wunderground v.1.15,2013-04-03 20:27:00,
2013-04-03 16:28:00,32.7,17.9,30.40,SSW,209,8.0,20.0,54,0.00,,,0.00,543,Wunderground v.1.15,2013-04-03 20:28:00,
2013-04-03 16:32:00,32.6,17.8,30.40,SSW,203,7.0,20.0,54,0.00,,,0.00,534,Wunderground v.1.15,2013-04-03 20:32:00,
2013-04-03 16:34:00,32.6,18.2,30.39,SW,221,7.0,20.0,55,0.00,,,0.00,529,Wunderground v.1.15,2013-04-03 20:34:00,
2013-04-03 16:36:00,32.7,18.7,30.39,South,183,6.0,20.0,56,0.00,,,0.00,466,Wunderground v.1.15,2013-04-03 20:36:00,
2013-04-03 16:37:00,32.8,18.8,30.39,SW,220,6.0,20.0,56,0.00,,,0.00,466,Wunderground v.1.15,2013-04-03 20:37:00,
2013-04-03 16:41:00,33.0,17.7,30.39,South,182,4.0,5.0,53,0.00,,,0.00,60,Wunderground v.1.15,2013-04-03 20:41:00,
2013-04-03 16:42:00,33.0,18.6,30.39,South,177,4.0,7.0,55,0.00,,,0.00,54,Wunderground v.1.15,2013-04-03 20:42:00,
2013-04-03 16:43:00,33.1,18.7,30.39,SSW,208,4.0,20.0,55,0.00,,,0.00,56,Wunderground v.1.15,2013-04-03 20:43:00,
2013-04-03 16:48:00,33.2,18.8,30.39,South,183,5.0,20.0,55,0.00,,,0.00,67,Wunderground v.1.15,2013-04-03 20:48:00,
2013-04-03 16:49:00,33.2,18.8,30.39,South,178,5.0,20.0,55,0.00,,,0.00,67,Wunderground v.1.15,2013-04-03 20:49:00,
2013-04-03 16:51:00,33.2,18.3,30.38,SSW,195,6.0,20.0,54,0.00,,,0.00,67,Wunderground v.1.15,2013-04-03 20:51:00,
2013-04-03 16:54:00,33.4,19.8,30.39,South,173,6.0,20.0,57,0.00,,,0.00,475,Wunderground v.1.15,2013-04-03 20:54:00,
2013-04-03 16:56:00,33.4,18.9,30.38,SSW,198,6.0,20.0,55,0.00,,,0.00,469,Wunderground v.1.15,2013-04-03 20:56:00,
2013-04-03 16:59:00,33.5,19.5,30.38,SSW,207,4.0,20.0,56,0.00,,,0.00,466,Wunderground v.1.15,2013-04-03 20:59:00,
2013-04-03 17:02:00,33.7,18.4,30.38,SSE,157,3.0,20.0,53,0.00,,,0.00,446,Wunderground v.1.15,2013-04-03 21:02:00,
2013-04-03 17:04:00,33.7,17.9,30.38,SSW,204,3.0,20.0,52,0.00,,,0.00,445,Wunderground v.1.15,2013-04-03 21:04:00,
2013-04-03 17:05:00,33.6,18.3,30.38,SW,229,3.0,20.0,53,0.00,,,0.00,431,Wunderground v.1.15,2013-04-03 21:05:00,
2013-04-03 17:07:00,33.6,18.3,30.38,WNW,292,3.0,20.0,53,0.00,,,0.00,432,Wunderground v.1.15,2013-04-03 21:07:00,
2013-04-03 17:09:00,33.7,18.4,30.38,SSW,205,3.0,20.0,53,0.00,,,0.00,427,Wunderground v.1.15,2013-04-03 21:09:00,
2013-04-03 17:10:00,33.7,18.8,30.38,SSW,204,3.0,20.0,54,0.00,,,0.00,436,Wunderground v.1.15,2013-04-03 21:10:00,
2013-04-03 17:13:00,33.7,18.4,30.38,South,187,3.0,20.0,53,0.00,,,0.00,424,Wunderground v.1.15,2013-04-03 21:13:00,
2013-04-03 17:14:00,33.7,18.4,30.38,SSW,197,3.0,20.0,53,0.00,,,0.00,418,Wunderground v.1.15,2013-04-03 21:14:00,
2013-04-03 17:15:00,33.7,18.4,30.37,SSW,201,3.0,20.0,53,0.00,,,0.00,413,Wunderground v.1.15,2013-04-03 21:15:00,
2013-04-03 17:16:00,33.8,18.0,30.37,SW,217,3.0,20.0,52,0.00,,,0.00,415,Wunderground v.1.15,2013-04-03 21:16:00,
2013-04-03 17:20:00,33.9,18.1,30.37,SSW,213,4.0,4.0,52,0.00,,,0.00,406,Wunderground v.1.15,2013-04-03 21:20:00,
2013-04-03 17:22:00,33.9,17.7,30.37,SE,145,3.0,20.0,51,0.00,,,0.00,403,Wunderground v.1.15,2013-04-03 21:22:00,
2013-04-03 17:26:00,33.9,18.6,30.37,South,184,4.0,20.0,53,0.00,,,0.00,394,Wunderground v.1.15,2013-04-03 21:26:00,
2013-04-03 17:27:00,33.9,18.1,30.37,South,171,3.0,20.0,52,0.00,,,0.00,383,Wunderground v.1.15,2013-04-03 21:27:00,
2013-04-03 17:29:00,34.0,18.2,30.37,SSW,197,3.0,20.0,52,0.00,,,0.00,374,Wunderground v.1.15,2013-04-03 21:29:00,
2013-04-03 17:31:00,34.0,17.3,30.37,SW,217,3.0,6.0,50,0.00,,,0.00,378,Wunderground v.1.15,2013-04-03 21:31:00,
2013-04-03 17:32:00,34.0,17.7,30.37,South,186,3.0,20.0,51,0.00,,,0.00,362,Wunderground v.1.15,2013-04-03 21:32:00,
2013-04-03 17:35:00,34.1,17.8,30.37,South,187,3.0,20.0,51,0.00,,,0.00,367,Wunderground v.1.15,2013-04-03 21:35:00,
2013-04-03 17:37:00,34.2,17.0,30.37,SSW,192,4.0,20.0,49,0.00,,,0.00,357,Wunderground v.1.15,2013-04-03 21:37:00,
2013-04-03 17:39:00,34.1,15.9,30.37,SSW,205,4.0,20.0,47,0.00,,,0.00,352,Wunderground v.1.15,2013-04-03 21:39:00,
2013-04-03 17:40:00,34.1,15.9,30.37,SSW,207,5.0,5.0,47,0.00,,,0.00,346,Wunderground v.1.15,2013-04-03 21:40:00,
2013-04-03 17:41:00,34.1,14.9,30.37,SSW,206,5.0,20.0,45,0.00,,,0.00,343,Wunderground v.1.15,2013-04-03 21:41:00,
2013-04-03 17:46:00,34.3,15.6,30.37,South,182,4.0,20.0,46,0.00,,,0.00,332,Wunderground v.1.15,2013-04-03 21:46:00,
2013-04-03 17:47:00,34.4,15.7,30.37,SSW,200,4.0,20.0,46,0.00,,,0.00,311,Wunderground v.1.15,2013-04-03 21:47:00,
2013-04-03 17:48:00,34.4,15.7,30.37,SSW,196,4.0,20.0,46,0.00,,,0.00,318,Wunderground v.1.15,2013-04-03 21:48:00,
2013-04-03 17:50:00,34.5,15.3,30.36,SSE,155,4.0,20.0,45,0.00,,,0.00,311,Wunderground v.1.15,2013-04-03 21:50:00,
2013-04-03 17:53:00,34.7,15.5,30.36,South,179,4.0,20.0,45,0.00,,,0.00,299,Wunderground v.1.15,2013-04-03 21:53:00,
2013-04-03 17:55:00,34.8,15.6,30.36,SSW,202,4.0,20.0,45,0.00,,,0.00,292,Wunderground v.1.15,2013-04-03 21:55:00,
2013-04-03 17:56:00,34.8,15.1,30.36,SSW,211,4.0,20.0,44,0.00,,,0.00,299,Wunderground v.1.15,2013-04-03 21:56:00,
2013-04-03 18:00:00,34.8,14.5,30.36,SSW,202,4.0,20.0,43,0.00,,,0.00,276,Wunderground v.1.15,2013-04-03 22:00:00,
2013-04-03 18:01:00,34.7,15.0,30.36,SW,227,4.0,20.0,44,0.00,,,0.00,269,Wunderground v.1.15,2013-04-03 22:01:00,
2013-04-03 18:02:00,34.6,14.4,30.36,NW,306,3.0,20.0,43,0.00,,,0.00,278,Wunderground v.1.15,2013-04-03 22:02:00,
2013-04-03 18:05:00,34.5,15.8,30.37,South,184,3.0,20.0,46,0.00,,,0.00,264,Wunderground v.1.15,2013-04-03 22:05:00,
2013-04-03 18:06:00,34.5,15.8,30.36,SE,135,3.0,20.0,46,0.00,,,0.00,253,Wunderground v.1.15,2013-04-03 22:06:00,
2013-04-03 18:08:00,34.6,15.9,30.36,SSW,207,3.0,20.0,46,0.00,,,0.00,255,Wunderground v.1.15,2013-04-03 22:08:00,
2013-04-03 18:09:00,34.6,14.9,30.36,SSW,213,2.0,20.0,44,0.00,,,0.00,241,Wunderground v.1.15,2013-04-03 22:09:00,
2013-04-03 18:11:00,34.6,15.4,30.36,SSW,200,2.0,6.0,45,0.00,,,0.00,246,Wunderground v.1.15,2013-04-03 22:11:00,
2013-04-03 18:13:00,34.6,14.9,30.36,SSW,212,3.0,20.0,44,0.00,,,0.00,241,Wunderground v.1.15,2013-04-03 22:13:00,
2013-04-03 18:17:00,34.6,14.9,30.36,SSW,205,2.0,20.0,44,0.00,,,0.00,227,Wunderground v.1.15,2013-04-03 22:17:00,
2013-04-03 18:18:00,34.6,15.4,30.36,SSW,192,2.0,20.0,45,0.00,,,0.00,227,Wunderground v.1.15,2013-04-03 22:18:00,
2013-04-03 18:19:00,34.6,15.9,30.36,SSW,202,2.0,20.0,46,0.00,,,0.00,227,Wunderground v.1.15,2013-04-03 22:19:00,
2013-04-03 18:23:00,34.8,16.6,30.35,WSW,239,1.0,20.0,47,0.00,,,0.00,197,Wunderground v.1.15,2013-04-03 22:23:00,
2013-04-03 18:24:00,34.8,16.1,30.35,SSW,209,1.0,20.0,46,0.00,,,0.00,200,Wunderground v.1.15,2013-04-03 22:24:00,
2013-04-03 18:28:00,35.0,16.3,30.35,SSW,213,1.0,20.0,46,0.00,,,0.00,183,Wunderground v.1.15,2013-04-03 22:28:00,
2013-04-03 18:30:00,34.9,15.7,30.35,SW,221,1.0,1.0,45,0.00,,,0.00,165,Wunderground v.1.15,2013-04-03 22:30:00,
2013-04-03 18:31:00,34.9,16.2,30.35,SW,215,1.0,20.0,46,0.00,,,0.00,163,Wunderground v.1.15,2013-04-03 22:31:00,
2013-04-03 18:33:00,34.8,16.1,30.35,SSW,211,1.0,20.0,46,0.00,,,0.00,153,Wunderground v.1.15,2013-04-03 22:33:00,
2013-04-03 18:35:00,34.9,16.7,30.35,South,190,1.0,20.0,47,0.00,,,0.00,153,Wunderground v.1.15,2013-04-03 22:35:00,
2013-04-03 18:37:00,34.9,16.7,30.35,SSW,200,2.0,20.0,47,0.00,,,0.00,151,Wunderground v.1.15,2013-04-03 22:37:00,
2013-04-03 18:39:00,34.9,16.2,30.34,SSW,200,2.0,20.0,46,0.00,,,0.00,148,Wunderground v.1.15,2013-04-03 22:39:00,
2013-04-03 18:40:00,35.0,16.3,30.34,SE,146,2.0,20.0,46,0.00,,,0.00,144,Wunderground v.1.15,2013-04-03 22:40:00,
2013-04-03 18:42:00,35.0,16.8,30.34,SSE,168,2.0,20.0,47,0.00,,,0.00,134,Wunderground v.1.15,2013-04-03 22:42:00,
2013-04-03 18:45:00,35.0,16.8,30.35,SSE,168,2.0,20.0,47,0.00,,,0.00,125,Wunderground v.1.15,2013-04-03 22:45:00,
2013-04-03 18:46:00,35.0,16.8,30.34,SSE,168,1.0,20.0,47,0.00,,,0.00,121,Wunderground v.1.15,2013-04-03 22:46:00,
2013-04-03 18:47:00,35.0,16.8,30.34,SSE,168,1.0,20.0,47,0.00,,,0.00,113,Wunderground v.1.15,2013-04-03 22:47:00,
2013-04-03 18:49:00,35.0,16.3,30.34,SSE,168,1.0,20.0,46,0.00,,,0.00,107,Wunderground v.1.15,2013-04-03 22:49:00,
2013-04-03 18:50:00,34.9,16.2,30.34,SSE,168,1.0,1.0,46,0.00,,,0.00,104,Wunderground v.1.15,2013-04-03 22:50:00,
2013-04-03 18:52:00,34.8,16.1,30.34,SSE,168,0.0,20.0,46,0.00,,,0.00,102,Wunderground v.1.15,2013-04-03 22:52:00,
2013-04-03 18:55:00,34.6,15.9,30.34,SSE,168,0.0,20.0,46,0.00,,,0.00,90,Wunderground v.1.15,2013-04-03 22:55:00,
2013-04-03 18:56:00,34.6,16.4,30.34,South,190,0.0,20.0,47,0.00,,,0.00,88,Wunderground v.1.15,2013-04-03 22:56:00,
2013-04-03 18:58:00,34.6,17.4,30.34,SW,218,0.0,20.0,49,0.00,,,0.00,86,Wunderground v.1.15,2013-04-03 22:58:00,
2013-04-03 19:00:00,34.6,17.4,30.34,NNW,334,0.0,20.0,49,0.00,,,0.00,81,Wunderground v.1.15,2013-04-03 23:00:00,
2013-04-03 19:01:00,34.6,16.9,30.34,North,5,0.0,20.0,48,0.00,,,0.00,81,Wunderground v.1.15,2013-04-03 23:01:00,
2013-04-03 19:05:00,34.3,17.1,30.33,North,9,0.0,20.0,49,0.00,,,0.00,70,Wunderground v.1.15,2013-04-03 23:05:00,
2013-04-03 19:06:00,34.3,17.1,30.33,North,9,0.0,20.0,49,0.00,,,0.00,67,Wunderground v.1.15,2013-04-03 23:06:00,
2013-04-03 19:07:00,34.2,17.0,30.33,North,9,0.0,20.0,49,0.00,,,0.00,65,Wunderground v.1.15,2013-04-03 23:07:00,
2013-04-03 19:11:00,34.0,17.7,30.33,North,9,0.0,20.0,51,0.00,,,0.00,53,Wunderground v.1.15,2013-04-03 23:11:00,
2013-04-03 19:12:00,33.9,17.7,30.33,North,9,0.0,20.0,51,0.00,,,0.00,51,Wunderground v.1.15,2013-04-03 23:12:00,
2013-04-03 19:13:00,33.9,17.7,30.33,North,9,0.0,20.0,51,0.00,,,0.00,49,Wunderground v.1.15,2013-04-03 23:13:00,
2013-04-03 19:17:00,33.7,17.9,30.33,North,9,0.0,20.0,52,0.00,,,0.00,40,Wunderground v.1.15,2013-04-03 23:17:00,
2013-04-03 19:18:00,33.6,17.8,30.33,North,9,0.0,20.0,52,0.00,,,0.00,40,Wunderground v.1.15,2013-04-03 23:18:00,
2013-04-03 19:22:00,33.5,18.2,30.33,North,9,0.0,20.0,53,0.00,,,0.00,32,Wunderground v.1.15,2013-04-03 23:22:00,
2013-04-03 19:23:00,33.5,18.6,30.33,North,9,0.0,20.0,54,0.00,,,0.00,30,Wunderground v.1.15,2013-04-03 23:23:00,
2013-04-03 19:24:00,33.5,18.6,30.33,North,9,0.0,20.0,54,0.00,,,0.00,30,Wunderground v.1.15,2013-04-03 23:24:00,
2013-04-03 19:25:00,33.4,18.5,30.32,North,9,0.0,20.0,54,0.00,,,0.00,28,Wunderground v.1.15,2013-04-03 23:25:00,
2013-04-03 19:29:00,33.4,19.4,30.32,North,9,0.0,20.0,56,0.00,,,0.00,25,Wunderground v.1.15,2013-04-03 23:29:00,
2013-04-03 19:30:00,33.4,18.9,30.32,North,9,0.0,20.0,55,0.00,,,0.00,25,Wunderground v.1.15,2013-04-03 23:30:00,
2013-04-03 19:31:00,33.4,19.4,30.32,North,9,0.0,20.0,56,0.00,,,0.00,25,Wunderground v.1.15,2013-04-03 23:31:00,
2013-04-03 19:33:00,33.3,18.9,30.32,North,9,0.0,20.0,55,0.00,,,0.00,25,Wunderground v.1.15,2013-04-03 23:33:00,
2013-04-03 19:37:00,33.2,18.8,30.32,North,9,0.0,20.0,55,0.00,,,0.00,23,Wunderground v.1.15,2013-04-03 23:37:00,
2013-04-03 19:39:00,33.0,18.1,30.31,North,9,0.0,20.0,54,0.00,,,0.00,23,Wunderground v.1.15,2013-04-03 23:39:00,
2013-04-03 19:41:00,32.9,18.1,30.31,North,9,0.0,20.0,54,0.00,,,0.00,21,Wunderground v.1.15,2013-04-03 23:41:00,
2013-04-03 19:42:00,32.8,18.0,30.31,North,9,0.0,20.0,54,0.00,,,0.00,18,Wunderground v.1.15,2013-04-03 23:42:00,
2013-04-03 19:45:00,32.7,17.9,30.31,North,9,0.0,20.0,54,0.00,,,0.00,18,Wunderground v.1.15,2013-04-03 23:45:00,
2013-04-03 19:48:00,32.6,17.8,30.31,North,9,0.0,20.0,54,0.00,,,0.00,18,Wunderground v.1.15,2013-04-03 23:48:00,
2013-04-03 19:49:00,32.5,17.7,30.31,North,9,0.0,20.0,54,0.00,,,0.00,14,Wunderground v.1.15,2013-04-03 23:49:00,
2013-04-03 19:52:00,32.4,17.2,30.30,North,9,0.0,20.0,53,0.00,,,0.00,14,Wunderground v.1.15,2013-04-03 23:52:00,
2013-04-03 19:53:00,32.4,17.2,30.30,North,9,0.0,20.0,53,0.00,,,0.00,14,Wunderground v.1.15,2013-04-03 23:53:00,
2013-04-03 19:58:00,32.3,17.5,30.30,North,9,0.0,20.0,54,0.00,,,0.00,11,Wunderground v.1.15,2013-04-03 23:58:00,
2013-04-03 19:59:00,32.2,17.4,30.30,North,9,0.0,20.0,54,0.00,,,0.00,11,Wunderground v.1.15,2013-04-03 23:59:00,
2013-04-03 20:00:00,32.2,17.8,30.30,North,9,0.0,20.0,55,0.00,,,0.00,9,Wunderground v.1.15,2013-04-04 00:00:00,
2013-04-03 20:02:00,32.1,17.3,30.30,North,9,0.0,20.0,54,0.00,,,0.00,7,Wunderground v.1.15,2013-04-04 00:02:00,
2013-04-03 20:05:00,32.0,17.6,30.30,North,9,0.0,20.0,55,0.00,,,0.00,5,Wunderground v.1.15,2013-04-04 00:05:00,
2013-04-03 20:06:00,32.0,17.6,30.29,North,9,0.0,20.0,55,0.00,,,0.00,5,Wunderground v.1.15,2013-04-04 00:06:00,
2013-04-03 20:07:00,31.9,17.5,30.30,North,9,0.0,20.0,55,0.00,,,0.00,0,Wunderground v.1.15,2013-04-04 00:07:00,
2013-04-03 20:08:00,31.9,17.1,30.29,North,9,0.0,20.0,54,0.00,,,0.00,0,Wunderground v.1.15,2013-04-04 00:08:00,
2013-04-03 20:13:00,31.7,17.8,30.29,North,9,0.0,20.0,56,0.00,,,0.00,0,Wunderground v.1.15,2013-04-04 00:13:00,
2013-04-03 20:14:00,31.7,17.8,30.29,North,9,0.0,20.0,56,0.00,,,0.00,0,Wunderground v.1.15,2013-04-04 00:14:00,
2013-04-03 20:17:00,31.5,17.6,30.28,North,9,0.0,20.0,56,0.00,,,0.00,0,Wunderground v.1.15,2013-04-04 00:17:00,
2013-04-03 20:18:00,31.5,17.6,30.29,North,9,0.0,20.0,56,0.00,,,0.00,0,Wunderground v.1.15,2013-04-04 00:18:00,
2013-04-03 20:21:00,31.4,17.5,30.28,North,9,0.0,20.0,56,0.00,,,0.00,0,Wunderground v.1.15,2013-04-04 00:21:00,
2013-04-03 20:23:00,31.3,17.4,30.28,North,9,0.0,20.0,56,0.00,,,0.00,0,Wunderground v.1.15,2013-04-04 00:23:00,
2013-04-03 20:24:00,31.3,17.4,30.28,North,9,0.0,20.0,56,0.00,,,0.00,0,Wunderground v.1.15,2013-04-04 00:24:00,
2013-04-03 20:25:00,31.3,17.4,30.28,North,9,0.0,20.0,56,0.00,,,0.00,0,Wunderground v.1.15,2013-04-04 00:25:00,
2013-04-03 20:32:00,31.1,18.0,30.27,North,9,0.0,20.0,58,0.00,,,0.00,0,Wunderground v.1.15,2013-04-04 00:32:00,
2013-04-03 20:33:00,31.0,17.9,30.27,North,9,0.0,20.0,58,0.00,,,0.00,0,Wunderground v.1.15,2013-04-04 00:33:00,
2013-04-03 20:34:00,31.0,17.9,30.27,North,9,0.0,20.0,58,0.00,,,0.00,0,Wunderground v.1.15,2013-04-04 00:34:00,
2013-04-03 20:38:00,30.9,17.8,30.28,North,9,0.0,20.0,58,0.00,,,0.00,0,Wunderground v.1.15,2013-04-04 00:38:00,
2013-04-03 20:39:00,30.8,17.7,30.27,North,9,0.0,20.0,58,0.00,,,0.00,0,Wunderground v.1.15,2013-04-04 00:39:00,
2013-04-03 20:40:00,30.8,18.1,30.27,North,9,0.0,20.0,59,0.00,,,0.00,0,Wunderground v.1.15,2013-04-04 00:40:00,
2013-04-03 20:42:00,30.7,18.1,30.28,North,9,0.0,20.0,59,0.00,,,0.00,0,Wunderground v.1.15,2013-04-04 00:42:00,
2013-04-03 20:46:00,30.6,18.3,30.28,North,9,0.0,20.0,60,0.00,,,0.00,0,Wunderground v.1.15,2013-04-04 00:46:00,
2013-04-03 20:47:00,30.6,18.3,30.28,North,9,0.0,20.0,60,0.00,,,0.00,0,Wunderground v.1.15,2013-04-04 00:47:00,
2013-04-03 20:51:00,30.5,18.3,30.28,North,9,0.0,20.0,60,0.00,,,0.00,0,Wunderground v.1.15,2013-04-04 00:51:00,
2013-04-03 20:55:00,30.3,18.1,30.28,North,9,0.0,20.0,60,0.00,,,0.00,0,Wunderground v.1.15,2013-04-04 00:55:00,
2013-04-03 20:56:00,30.3,18.1,30.28,North,9,0.0,20.0,60,0.00,,,0.00,0,Wunderground v.1.15,2013-04-04 00:56:00,
2013-04-03 20:57:00,30.3,18.1,30.28,North,9,0.0,20.0,60,0.00,,,0.00,0,Wunderground v.1.15,2013-04-04 00:57:00,
2013-04-03 21:02:00,30.1,18.3,30.28,North,9,0.0,20.0,61,0.00,,,0.00,0,Wunderground v.1.15,2013-04-04 01:02:00,
2013-04-03 21:03:00,30.1,18.3,30.28,North,9,0.0,20.0,61,0.00,,,0.00,0,Wunderground v.1.15,2013-04-04 01:03:00,
2013-04-03 21:04:00,30.1,18.3,30.28,North,9,0.0,20.0,61,0.00,,,0.00,0,Wunderground v.1.15,2013-04-04 01:04:00,
2013-04-03 21:06:00,29.9,18.1,30.28,North,9,0.0,20.0,61,0.00,,,0.00,0,Wunderground v.1.15,2013-04-04 01:06:00,
2013-04-03 21:10:00,29.8,18.4,30.29,North,9,0.0,20.0,62,0.00,,,0.00,0,Wunderground v.1.15,2013-04-04 01:10:00,
2013-04-03 21:14:00,29.7,18.3,30.29,North,9,0.0,20.0,62,0.00,,,0.00,0,Wunderground v.1.15,2013-04-04 01:14:00,
2013-04-03 21:16:00,29.6,18.2,30.29,North,9,0.0,20.0,62,0.00,,,0.00,0,Wunderground v.1.15,2013-04-04 01:16:00,
2013-04-03 21:18:00,29.5,18.1,30.29,North,9,0.0,20.0,62,0.00,,,0.00,0,Wunderground v.1.15,2013-04-04 01:18:00,
2013-04-03 21:21:00,29.4,18.3,30.29,North,9,0.0,20.0,63,0.00,,,0.00,0,Wunderground v.1.15,2013-04-04 01:21:00,
2013-04-03 21:23:00,29.3,18.3,30.30,North,9,0.0,20.0,63,0.00,,,0.00,0,Wunderground v.1.15,2013-04-04 01:23:00,
2013-04-03 21:25:00,29.3,18.3,30.30,North,9,0.0,20.0,63,0.00,,,0.00,0,Wunderground v.1.15,2013-04-04 01:25:00,
2013-04-03 21:28:00,29.2,18.2,30.30,North,9,0.0,20.0,63,0.00,,,0.00,0,Wunderground v.1.15,2013-04-04 01:28:00,
2013-04-03 21:29:00,29.1,18.4,30.30,North,9,0.0,20.0,64,0.00,,,0.00,0,Wunderground v.1.15,2013-04-04 01:29:00,
2013-04-03 21:33:00,29.0,18.3,30.30,North,9,0.0,20.0,64,0.00,,,0.00,0,Wunderground v.1.15,2013-04-04 01:33:00,
2013-04-03 21:36:00,28.9,18.2,30.30,North,9,0.0,20.0,64,0.00,,,0.00,0,Wunderground v.1.15,2013-04-04 01:36:00,
2013-04-03 21:38:00,28.8,18.1,30.30,North,9,0.0,20.0,64,0.00,,,0.00,0,Wunderground v.1.15,2013-04-04 01:38:00,
2013-04-03 21:39:00,28.8,18.1,30.31,North,9,0.0,20.0,64,0.00,,,0.00,0,Wunderground v.1.15,2013-04-04 01:39:00,
2013-04-03 21:42:00,28.7,18.4,30.30,North,9,0.0,20.0,65,0.00,,,0.00,0,Wunderground v.1.15,2013-04-04 01:42:00,
2013-04-03 21:43:00,28.7,18.4,30.30,North,9,0.0,20.0,65,0.00,,,0.00,0,Wunderground v.1.15,2013-04-04 01:43:00,
2013-04-03 21:44:00,28.7,18.4,30.30,North,9,0.0,20.0,65,0.00,,,0.00,0,Wunderground v.1.15,2013-04-04 01:44:00,
2013-04-03 21:48:00,28.7,18.1,30.30,North,355,0.0,20.0,64,0.00,,,0.00,0,Wunderground v.1.15,2013-04-04 01:48:00,
2013-04-03 21:51:00,28.7,18.4,30.30,North,355,0.0,20.0,65,0.00,,,0.00,0,Wunderground v.1.15,2013-04-04 01:51:00,
2013-04-03 21:53:00,28.7,18.8,30.30,West,263,0.0,20.0,66,0.00,,,0.00,0,Wunderground v.1.15,2013-04-04 01:53:00,
2013-04-03 21:57:00,28.8,19.2,30.31,North,350,0.0,20.0,67,0.00,,,0.00,0,Wunderground v.1.15,2013-04-04 01:57:00,
2013-04-03 21:58:00,28.8,19.2,30.31,North,350,0.0,20.0,67,0.00,,,0.00,0,Wunderground v.1.15,2013-04-04 01:58:00,
2013-04-03 22:00:00,28.8,19.2,30.31,North,350,0.0,20.0,67,0.00,,,0.00,0,Wunderground v.1.15,2013-04-04 02:00:00,
2013-04-03 22:03:00,28.8,19.6,30.31,West,268,0.0,20.0,68,0.00,,,0.00,0,Wunderground v.1.15,2013-04-04 02:03:00,
2013-04-03 22:04:00,28.8,19.6,30.30,West,268,0.0,20.0,68,0.00,,,0.00,0,Wunderground v.1.15,2013-04-04 02:04:00,
2013-04-03 22:05:00,28.7,19.8,30.30,West,270,0.0,20.0,69,0.00,,,0.00,0,Wunderground v.1.15,2013-04-04 02:05:00,
2013-04-03 22:08:00,28.7,19.8,30.31,West,270,0.0,20.0,69,0.00,,,0.00,0,Wunderground v.1.15,2013-04-04 02:08:00,
2013-04-03 22:10:00,28.6,19.7,30.31,West,270,0.0,20.0,69,0.00,,,0.00,0,Wunderground v.1.15,2013-04-04 02:10:00,
2013-04-03 22:12:00,28.6,20.1,30.31,West,270,0.0,20.0,70,0.00,,,0.00,0,Wunderground v.1.15,2013-04-04 02:12:00,
2013-04-03 22:14:00,28.5,20.0,30.31,West,271,0.0,20.0,70,0.00,,,0.00,0,Wunderground v.1.15,2013-04-04 02:14:00,
2013-04-03 22:17:00,28.4,20.2,30.31,West,271,0.0,20.0,71,0.00,,,0.00,0,Wunderground v.1.15,2013-04-04 02:17:00,
2013-04-03 22:19:00,28.4,20.2,30.31,West,271,0.0,20.0,71,0.00,,,0.00,0,Wunderground v.1.15,2013-04-04 02:19:00,
2013-04-03 22:20:00,28.4,20.2,30.30,West,271,0.0,20.0,71,0.00,,,0.00,0,Wunderground v.1.15,2013-04-04 02:20:00,
2013-04-03 22:22:00,28.3,20.4,30.30,West,271,0.0,20.0,72,0.00,,,0.00,0,Wunderground v.1.15,2013-04-04 02:22:00,
2013-04-03 22:23:00,28.3,20.4,30.30,West,271,0.0,20.0,72,0.00,,,0.00,0,Wunderground v.1.15,2013-04-04 02:23:00,
2013-04-03 22:24:00,28.3,20.4,30.30,West,271,0.0,20.0,72,0.00,,,0.00,0,Wunderground v.1.15,2013-04-04 02:24:00,
2013-04-03 22:28:00,28.2,20.7,30.30,West,271,0.0,20.0,73,0.00,,,0.00,0,Wunderground v.1.15,2013-04-04 02:28:00,
2013-04-03 22:29:00,28.2,20.7,30.30,West,271,0.0,20.0,73,0.00,,,0.00,0,Wunderground v.1.15,2013-04-04 02:29:00,
2013-04-03 22:30:00,28.1,20.6,30.30,West,271,0.0,20.0,73,0.00,,,0.00,0,Wunderground v.1.15,2013-04-04 02:30:00,
2013-04-03 22:33:00,28.1,20.6,30.30,West,271,0.0,20.0,73,0.00,,,0.00,0,Wunderground v.1.15,2013-04-04 02:33:00,
2013-04-03 22:35:00,28.0,20.8,30.30,West,271,0.0,20.0,74,0.00,,,0.00,0,Wunderground v.1.15,2013-04-04 02:35:00,
2013-04-03 22:37:00,28.0,20.8,30.30,West,271,0.0,20.0,74,0.00,,,0.00,0,Wunderground v.1.15,2013-04-04 02:37:00,
2013-04-03 22:41:00,27.9,21.0,30.30,West,268,0.0,20.0,75,0.00,,,0.00,0,Wunderground v.1.15,2013-04-04 02:41:00,
2013-04-03 22:42:00,27.9,21.0,30.30,West,268,0.0,20.0,75,0.00,,,0.00,0,Wunderground v.1.15,2013-04-04 02:42:00,
2013-04-03 22:43:00,27.9,21.0,30.30,West,268,0.0,20.0,75,0.00,,,0.00,0,Wunderground v.1.15,2013-04-04 02:43:00,
2013-04-03 22:44:00,27.9,21.0,30.30,West,274,0.0,20.0,75,0.00,,,0.00,0,Wunderground v.1.15,2013-04-04 02:44:00,
2013-04-03 22:47:00,27.8,21.2,30.30,West,266,0.0,20.0,76,0.00,,,0.00,0,Wunderground v.1.15,2013-04-04 02:47:00,
2013-04-03 22:48:00,27.8,21.2,30.30,West,266,0.0,20.0,76,0.00,,,0.00,0,Wunderground v.1.15,2013-04-04 02:48:00,
2013-04-03 22:49:00,27.8,21.2,30.30,West,266,0.0,20.0,76,0.00,,,0.00,0,Wunderground v.1.15,2013-04-04 02:49:00,
2013-04-03 22:53:00,27.8,21.2,30.30,NW,306,0.0,20.0,76,0.00,,,0.00,0,Wunderground v.1.15,2013-04-04 02:53:00,
2013-04-03 22:55:00,27.8,21.5,30.30,WNW,301,0.0,20.0,77,0.00,,,0.00,0,Wunderground v.1.15,2013-04-04 02:55:00,
2013-04-03 22:56:00,27.8,21.5,30.30,WNW,301,0.0,20.0,77,0.00,,,0.00,0,Wunderground v.1.15,2013-04-04 02:56:00,
2013-04-03 22:57:00,27.7,21.4,30.29,WNW,301,0.0,20.0,77,0.00,,,0.00,0,Wunderground v.1.15,2013-04-04 02:57:00,
2013-04-03 23:01:00,27.7,21.4,30.29,WNW,300,0.0,20.0,77,0.00,,,0.00,0,Wunderground v.1.15,2013-04-04 03:01:00,
2013-04-03 23:03:00,27.8,21.5,30.29,WNW,300,0.0,20.0,77,0.00,,,0.00,0,Wunderground v.1.15,2013-04-04 03:03:00,
2013-04-03 23:06:00,27.7,21.4,30.29,WNW,301,0.0,20.0,77,0.00,,,0.00,0,Wunderground v.1.15,2013-04-04 03:06:00,
2013-04-03 23:09:00,27.7,21.4,30.29,WNW,301,0.0,20.0,77,0.00,,,0.00,0,Wunderground v.1.15,2013-04-04 03:09:00,
2013-04-03 23:12:00,27.7,21.4,30.29,WNW,301,0.0,20.0,77,0.00,,,0.00,0,Wunderground v.1.15,2013-04-04 03:12:00,
2013-04-03 23:13:00,27.8,21.8,30.28,WNW,301,0.0,20.0,78,0.00,,,0.00,0,Wunderground v.1.15,2013-04-04 03:13:00,
2013-04-03 23:14:00,27.7,21.7,30.28,WNW,301,0.0,20.0,78,0.00,,,0.00,0,Wunderground v.1.15,2013-04-04 03:14:00,
2013-04-03 23:18:00,27.7,21.7,30.28,WNW,301,0.0,20.0,78,0.00,,,0.00,0,Wunderground v.1.15,2013-04-04 03:18:00,
2013-04-03 23:19:00,27.7,21.7,30.28,WNW,301,0.0,20.0,78,0.00,,,0.00,0,Wunderground v.1.15,2013-04-04 03:19:00,
2013-04-03 23:21:00,27.7,21.7,30.28,WNW,301,0.0,20.0,78,0.00,,,0.00,0,Wunderground v.1.15,2013-04-04 03:21:00,
2013-04-03 23:23:00,27.6,21.3,30.28,WNW,301,0.0,20.0,77,0.00,,,0.00,0,Wunderground v.1.15,2013-04-04 03:23:00,
2013-04-03 23:25:00,27.6,21.3,30.28,WNW,301,0.0,20.0,77,0.00,,,0.00,0,Wunderground v.1.15,2013-04-04 03:25:00,
2013-04-03 23:27:00,27.6,21.3,30.28,WNW,301,0.0,20.0,77,0.00,,,0.00,0,Wunderground v.1.15,2013-04-04 03:27:00,
2013-04-03 23:31:00,27.5,21.2,30.27,WNW,301,0.0,20.0,77,0.00,,,0.00,0,Wunderground v.1.15,2013-04-04 03:31:00,
2013-04-03 23:33:00,27.5,21.2,30.27,WNW,301,0.0,20.0,77,0.00,,,0.00,0,Wunderground v.1.15,2013-04-04 03:33:00,
2013-04-03 23:37:00,27.4,21.4,30.27,WNW,301,0.0,20.0,78,0.00,,,0.00,0,Wunderground v.1.15,2013-04-04 03:37:00,
2013-04-03 23:39:00,27.3,21.3,30.27,WNW,301,0.0,20.0,78,0.00,,,0.00,0,Wunderground v.1.15,2013-04-04 03:39:00,
2013-04-03 23:40:00,27.3,21.3,30.27,WNW,301,0.0,20.0,78,0.00,,,0.00,0,Wunderground v.1.15,2013-04-04 03:40:00,
2013-04-03 23:41:00,27.3,21.3,30.27,WNW,301,0.0,20.0,78,0.00,,,0.00,0,Wunderground v.1.15,2013-04-04 03:41:00,
2013-04-03 23:45:00,27.3,21.3,30.26,WNW,301,0.0,20.0,78,0.00,,,0.00,0,Wunderground v.1.15,2013-04-04 03:45:00,
2013-04-03 23:47:00,27.3,21.3,30.26,WNW,301,0.0,20.0,78,0.00,,,0.00,0,Wunderground v.1.15,2013-04-04 03:47:00,
2013-04-03 23:49:00,27.3,21.3,30.26,WNW,301,0.0,20.0,78,0.00,,,0.00,0,Wunderground v.1.15,2013-04-04 03:49:00,
2013-04-03 23:51:00,27.3,21.3,30.26,NW,311,0.0,20.0,78,0.00,,,0.00,0,Wunderground v.1.15,2013-04-04 03:51:00,
2013-04-03 23:52:00,27.3,21.3,30.26,NNW,336,0.0,20.0,78,0.00,,,0.00,0,Wunderground v.1.15,2013-04-04 03:52:00,
2013-04-03 23:54:00,27.3,21.3,30.26,NNW,336,0.0,20.0,78,0.00,,,0.00,0,Wunderground v.1.15,2013-04-04 03:54:00,
2013-04-03 23:55:00,27.3,21.3,30.25,NNW,336,0.0,20.0,78,0.00,,,0.00,0,Wunderground v.1.15,2013-04-04 03:55:00,
2013-04-03 23:57:00,27.3,21.3,30.25,NNW,336,0.0,20.0,78,0.00,,,0.00,0,Wunderground v.1.15,2013-04-04 03:57:00,